GFSGBSN_sfc_thetae_036.txt.gz
Theta_e
325 325 324 323 322 322 322 321 319 318 318 318 318 318 318 318 317 315 314 314 314 315 316 314 313 314 315 311 309 323 328 327 319 314 314 311 307 306 302 305 306 304 304 302 304 308 312
319 324 323 322 322 322 322 321 320 318 317 317 317 317 317 317 317 315 314 314 314 315 315 312 312 314 313 304 315 323 323 319 316 313 313 313 308 309 307 305 305 305 302 300 302 306 310
319 318 323 322 321 321 321 320 319 318 317 317 316 316 316 317 317 315 315 315 315 315 313 311 314 314 312 310 317 323 319 317 318 315 312 314 313 309 309 305 303 303 300 302 303 306 305
318 318 321 321 320 319 319 318 318 317 317 317 316 316 316 316 316 315 315 315 315 314 312 312 314 313 309 317 320 318 319 317 318 318 316 315 315 310 308 306 303 300 301 297 302 305 303
317 317 317 321 320 319 318 318 317 317 317 316 316 316 315 315 314 314 314 314 314 312 311 314 313 313 307 318 312 316 318 312 314 315 316 314 313 308 306 301 298 300 295 296 298 303 303
316 316 316 319 320 319 318 317 316 316 316 315 315 315 315 314 314 313 313 313 312 312 314 315 317 311 314 308 313 315 315 314 312 312 310 308 308 303 303 300 293 295 295 297 297 301 303
315 316 316 316 321 320 319 318 316 315 315 315 315 316 315 314 314 313 313 315 311 310 312 309 306 308 308 314 315 311 312 313 312 310 303 306 302 298 300 301 301 299 299 298 300 302 302
314 315 316 316 317 320 320 318 316 315 315 315 315 315 314 314 314 313 316 310 310 316 306 311 310 310 312 313 307 309 313 307 306 302 305 303 300 302 303 302 301 300 299 299 300 301 302
312 313 315 315 316 320 319 319 316 315 314 314 314 314 314 313 312 312 313 312 321 319 310 307 310 308 308 311 306 307 310 309 304 302 303 300 301 304 303 301 300 300 299 299 298 300 303
311 312 313 314 312 317 318 318 316 315 314 313 314 313 313 312 310 315 311 316 318 319 302 299 303 307 308 310 304 310 312 309 305 300 303 302 304 302 302 300 302 298 302 301 299 299 295
310 311 312 312 312 314 316 316 316 315 314 313 313 313 312 313 314 310 314 318 322 318 287 301 303 312 310 306 306 306 313 309 302 302 302 300 302 301 300 300 302 300 303 301 300 300 299
309 310 311 311 310 311 315 315 314 314 313 313 312 312 312 312 316 318 325 328 321 301 287 298 304 303 303 304 304 307 308 310 309 304 305 303 306 305 303 304 304 305 303 303 302 301 292
308 309 310 310 310 308 314 314 313 312 312 312 312 312 313 317 310 329 326 319 299 292 300 297 299 302 302 300 301 304 303 303 300 298 298 301 302 305 306 302 305 304 300 293 291 291 290
307 308 308 309 309 309 312 314 312 311 311 312 311 311 313 316 320 324 321 308 291 295 297 301 300 301 298 301 301 302 302 299 302 302 299 296 294 301 304 303 300 300 299 293 283 287 292
307 307 308 308 308 308 309 313 311 311 311 310 310 312 313 318 320 321 311 298 295 298 302 299 300 297 298 300 300 301 301 301 302 304 297 296 295 302 302 304 304 299 297 301 294 291 291
305 306 307 308 307 308 307 312 311 311 309 310 313 310 312 320 322 315 307 297 300 304 302 301 295 299 296 299 298 299 300 302 301 303 306 302 295 300 301 304 304 302 303 294 296 285 283
305 306 306 307 307 307 306 311 310 309 309 311 313 306 318 326 323 311 300 299 302 309 306 300 298 298 299 298 299 298 299 301 303 303 306 304 300 297 300 299 298 299 298 297 297 294 287
304 304 305 306 306 306 306 310 310 309 309 310 311 302 323 323 307 309 301 302 303 305 308 304 304 302 300 301 300 298 298 301 306 305 302 303 302 296 297 301 302 301 300 299 292 289 293
303 304 305 305 305 304 306 308 309 308 310 313 306 310 317 314 301 302 303 302 307 303 305 305 303 304 305 302 298 301 302 303 305 304 303 303 299 293 294 298 301 299 300 299 296 296 291
303 304 304 305 304 305 305 307 308 308 310 316 309 304 311 310 308 305 301 301 302 306 305 306 305 307 305 302 304 301 302 302 303 303 299 302 300 297 292 295 299 296 298 298 297 292 291
303 304 304 304 304 306 307 309 308 308 309 316 311 306 310 301 301 304 304 302 301 302 306 307 304 305 304 300 301 301 303 300 302 300 303 304 297 297 296 295 295 295 296 297 295 296 292
303 303 303 303 304 305 307 308 307 308 310 318 308 307 307 307 305 303 300 301 302 303 304 303 304 305 306 303 303 301 303 302 301 303 302 301 297 296 293 295 294 293 296 296 297 297 296
303 303 302 303 304 305 308 307 307 307 309 315 317 311 310 299 302 301 301 303 303 307 305 305 308 306 304 304 307 308 307 306 304 303 301 300 297 294 289 291 291 289 295 296 296 299 298
303 302 303 304 305 307 307 306 306 307 309 320 320 313 309 300 301 299 302 305 305 306 305 305 307 306 305 309 309 308 306 304 303 300 301 297 296 293 290 287 285 293 297 297 297 299 300
303 304 305 305 307 306 305 305 306 307 309 324 320 314 308 295 302 301 304 305 306 307 305 305 305 307 309 305 302 298 298 298 298 298 298 298 295 289 290 287 291 293 293 293 293 294 300
304 305 306 306 305 305 305 305 306 307 310 323 319 318 314 304 301 304 305 307 305 305 305 302 305 307 304 303 301 295 293 295 293 295 298 296 296 296 288 289 287 293 296 300 299 291 299
304 306 305 305 304 304 305 306 306 308 309 322 319 318 317 309 306 309 305 306 309 307 305 303 302 303 304 301 298 297 295 294 291 290 288 293 293 291 290 290 292 296 296 300 289 292 301
305 304 304 304 305 306 306 306 306 308 309 320 317 319 319 311 310 311 309 308 307 310 306 304 304 303 303 300 300 297 296 295 293 294 293 293 292 290 289 288 286 297 299 294 300 303 302
304 305 305 305 305 305 306 306 307 308 309 314 317 318 320 314 310 314 312 313 312 310 310 307 308 305 307 303 300 297 292 290 294 293 296 292 297 296 295 296 299 301 303 304 304 303 304

GFSGBSN_sfc_thetae_039.txt.gz
Theta_e
320 320 323 325 324 323 323 322 321 319 319 318 318 318 318 318 318 318 315 314 314 314 315 315 314 314 316 313 310 325 329 329 320 317 314 311 308 307 303 304 306 304 307 306 307 310 311
319 320 319 323 323 323 323 322 321 319 318 318 317 317 317 318 318 318 315 315 314 315 315 314 313 314 315 305 317 322 322 320 316 316 314 314 310 310 308 306 306 308 307 305 308 310 312
317 319 319 319 322 322 322 321 320 319 319 318 317 317 316 317 318 317 317 315 314 315 314 312 313 316 313 311 319 324 322 318 320 316 313 315 315 310 311 307 308 305 301 304 304 308 309
317 317 318 318 320 320 320 320 319 319 319 318 317 316 316 316 316 316 316 316 316 315 312 312 314 318 309 320 322 320 322 320 321 320 317 318 317 313 311 310 305 302 302 298 305 308 309
315 316 317 317 316 319 319 319 319 319 318 317 317 316 315 315 315 315 315 315 314 313 312 313 316 316 309 318 313 318 320 315 317 318 318 316 315 310 309 303 298 301 296 298 301 308 307
313 315 316 317 316 317 319 319 318 318 317 317 316 316 315 315 315 314 314 314 313 311 314 318 318 313 317 310 314 317 319 316 315 315 313 311 310 305 305 301 293 296 297 299 298 303 304
312 312 315 316 316 316 320 320 318 316 316 316 316 315 316 315 315 314 314 317 313 312 314 309 310 309 310 315 317 315 316 314 314 312 306 309 303 299 301 303 303 300 299 298 301 303 301
312 312 313 315 316 316 318 320 318 316 316 316 315 315 316 315 315 313 317 312 313 318 309 312 311 312 314 315 308 312 315 309 308 304 306 303 299 304 305 303 302 300 299 298 302 303 302
311 311 312 314 315 316 316 319 318 316 315 315 315 315 315 314 313 313 315 315 323 322 312 309 310 309 311 312 308 309 312 310 306 303 303 300 303 306 303 302 300 300 299 299 299 302 303
310 310 312 313 313 315 315 316 318 316 315 314 314 314 313 312 310 317 314 319 321 322 305 302 305 308 310 311 306 313 313 310 306 301 303 302 306 304 302 300 302 298 304 302 300 300 295
309 310 310 311 312 312 312 313 317 316 315 314 313 313 312 312 319 313 318 319 323 324 290 303 305 315 311 307 307 308 314 310 303 302 304 301 303 302 300 302 304 301 305 303 302 300 299
309 309 310 310 311 312 311 312 315 315 314 314 313 313 312 313 317 320 324 323 322 303 290 299 305 304 304 306 305 308 308 311 311 304 303 302 309 306 305 305 305 306 303 303 303 300 293
307 308 309 310 310 311 311 311 314 314 314 313 313 312 313 319 313 323 325 324 302 293 302 298 300 304 303 302 303 304 303 303 300 296 298 303 303 307 307 303 306 305 301 294 292 292 291
304 307 308 309 309 310 310 310 313 313 313 312 311 311 313 318 322 328 323 311 294 298 300 303 302 302 299 302 302 302 301 299 303 303 298 296 295 303 307 305 302 302 301 294 286 288 291
303 306 307 308 309 310 310 309 312 312 311 311 311 314 315 318 323 324 314 299 298 300 303 300 301 298 299 301 301 301 301 300 302 304 296 297 296 305 305 306 305 301 297 303 296 297 292
303 304 306 307 308 308 309 308 311 312 311 310 313 311 312 323 323 317 308 299 303 305 304 303 297 300 297 299 298 299 300 303 302 306 309 302 296 302 303 306 306 304 305 296 296 287 285
302 303 306 306 307 308 308 308 308 311 310 311 314 307 318 324 320 310 301 303 305 307 308 302 300 299 300 299 300 298 299 304 306 306 308 305 301 300 302 301 299 301 299 299 299 297 289
302 302 305 306 306 307 308 308 307 310 310 309 312 302 321 325 302 306 303 306 305 306 310 306 305 303 301 302 300 299 299 303 309 308 302 306 302 296 299 304 306 304 301 301 294 291 294
300 301 304 305 306 306 307 308 305 309 310 313 307 309 321 317 298 304 307 306 307 305 307 305 302 305 305 303 299 301 302 308 308 308 304 306 299 293 296 301 304 300 302 301 301 298 293
300 301 303 304 305 306 306 306 306 309 310 315 310 303 307 313 308 307 305 303 302 309 307 306 304 306 304 301 304 301 302 305 308 307 301 305 300 297 293 296 301 299 300 302 299 294 293
301 302 303 304 304 305 305 305 306 308 309 313 309 305 309 302 305 305 307 304 301 302 308 309 305 305 303 300 301 302 305 304 306 301 305 306 299 300 300 300 300 299 299 299 298 298 295
301 302 303 303 304 305 305 305 305 306 309 308 308 307 310 305 308 306 304 303 301 304 306 304 302 305 306 303 304 302 306 305 303 306 306 306 299 300 297 300 299 297 299 299 298 299 298
302 302 303 303 304 305 305 305 305 305 308 307 316 317 313 306 307 304 304 304 303 308 308 309 307 306 306 307 312 312 312 310 309 306 305 304 301 296 291 295 294 291 296 298 299 300 300
302 303 303 303 304 304 304 304 303 307 308 315 318 316 311 304 307 304 305 305 304 308 306 309 311 309 310 315 313 312 309 307 307 306 308 302 301 298 292 289 284 296 299 299 298 300 302
302 303 303 303 303 304 304 304 304 307 308 313 321 316 311 301 307 304 305 305 307 310 309 309 309 313 315 312 305 300 301 299 300 302 301 304 300 293 291 290 294 295 297 296 295 295 301
302 303 303 302 302 303 304 304 306 306 308 309 315 324 317 310 307 307 305 307 306 308 308 305 312 313 310 310 305 296 293 297 296 298 301 299 301 297 291 288 286 296 299 302 301 292 301
302 302 302 303 303 303 305 306 306 306 307 311 318 325 317 309 309 310 305 306 310 310 308 307 307 306 310 306 299 299 297 300 294 294 291 295 296 293 293 292 295 300 300 302 291 295 303
302 302 302 304 305 305 305 305 305 306 307 310 321 326 320 314 313 315 312 309 312 311 307 309 307 307 307 301 303 302 299 299 298 299 296 295 295 292 295 289 287 301 301 295 303 304 305
302 304 305 305 304 304 305 305 305 306 308 310 319 324 326 317 314 319 317 318 316 316 314 311 310 309 310 306 306 306 296 294 300 294 301 295 300 299 298 298 302 303 302 305 306 304 305

GFSGBSN_sfc_thetae_042.txt.gz
Theta_e
318 320 320 320 320 324 324 324 322 321 320 319 319 319 318 318 318 319 318 315 314 314 315 316 315 314 315 312 310 323 330 327 319 314 312 310 307 305 302 304 305 303 304 307 307 308 311
317 318 319 320 319 321 325 323 322 320 319 319 318 318 318 318 318 318 318 316 315 314 315 316 314 313 314 304 317 322 323 322 315 313 313 312 308 309 305 305 303 306 305 306 307 309 310
315 317 318 319 319 319 323 322 321 320 320 319 318 318 317 317 317 318 317 317 315 314 317 314 313 315 311 308 319 321 322 319 317 315 312 313 313 309 309 306 310 307 302 303 306 308 308
315 315 317 317 317 317 319 321 321 320 320 319 318 317 316 316 316 316 316 316 316 315 315 313 313 316 308 319 321 318 320 320 321 320 317 317 317 311 309 311 306 301 302 297 304 305 308
314 314 315 316 317 316 316 319 320 320 320 319 318 317 316 315 315 315 315 315 316 315 315 313 315 315 307 320 314 318 319 315 317 318 318 317 314 310 309 303 299 300 294 297 300 306 306
313 313 314 315 316 316 316 317 319 319 318 318 318 317 316 315 315 315 315 315 316 312 313 317 316 310 315 310 314 315 319 317 314 314 312 311 309 305 304 301 291 294 294 298 298 303 304
313 313 313 313 314 316 317 317 318 318 318 317 317 317 316 315 315 314 313 314 311 310 313 307 308 307 310 315 317 314 317 313 314 312 305 308 302 299 301 303 302 300 298 297 300 303 301
312 312 313 312 313 315 316 316 316 317 317 317 316 316 316 316 315 314 315 313 313 317 309 314 309 311 313 315 308 311 316 308 308 303 306 304 298 303 304 304 302 300 298 298 300 302 300
311 312 312 312 313 314 315 316 315 317 317 316 316 316 316 314 314 313 313 312 320 321 309 310 313 306 309 313 308 308 312 309 305 302 303 300 301 306 303 301 299 299 299 299 298 301 301
309 310 311 312 312 313 314 315 315 316 316 315 315 314 314 313 309 315 313 318 319 322 303 303 306 306 310 311 306 312 313 309 306 301 303 302 305 304 302 300 301 297 304 301 300 298 292
307 308 310 310 311 311 312 313 313 314 316 315 314 314 312 312 316 314 318 321 322 319 290 304 305 314 312 307 308 307 314 309 303 302 303 300 301 301 301 301 304 299 305 302 301 298 298
307 307 309 310 310 311 311 312 312 312 315 315 313 313 312 313 314 317 323 328 322 302 289 299 304 303 304 305 306 308 307 311 309 303 304 302 308 305 304 305 305 306 303 302 301 299 291
306 306 308 309 309 310 310 312 311 311 314 314 313 313 312 317 312 322 325 319 300 292 302 298 299 303 302 301 302 303 302 301 299 296 297 301 301 306 307 302 305 303 299 293 287 288 290
303 305 306 308 309 309 310 311 310 310 312 313 312 311 312 316 321 326 322 308 292 297 299 303 302 302 299 302 301 301 301 297 302 301 297 295 293 302 306 302 299 300 299 292 285 285 291
303 304 305 306 307 309 310 310 310 310 312 312 311 313 312 317 320 324 312 296 295 300 302 301 301 298 298 301 301 300 299 298 301 302 296 295 295 304 306 305 305 300 297 302 295 298 293
302 304 304 305 306 307 308 310 309 310 312 311 309 309 309 320 323 317 306 297 301 306 305 303 296 299 296 298 298 299 298 302 300 304 307 301 293 302 304 306 305 301 303 296 297 287 285
302 302 303 304 303 306 307 309 309 309 311 311 308 303 313 322 321 308 298 300 304 308 308 302 299 298 299 298 299 298 298 301 304 304 307 302 297 298 303 300 297 300 298 298 297 297 290
301 302 302 303 302 306 307 308 308 309 310 309 306 298 318 322 302 301 300 303 304 307 308 306 305 302 300 301 299 298 297 301 307 307 301 305 302 297 298 304 306 303 300 300 296 291 296
301 301 302 303 302 305 306 307 308 309 310 308 302 305 319 318 296 298 302 303 306 305 306 305 303 304 304 301 298 300 302 309 310 306 303 306 300 293 294 300 303 299 300 300 300 301 294
300 301 301 302 302 302 306 307 307 307 310 309 304 299 306 311 307 300 300 301 302 309 305 307 305 305 303 301 304 301 301 306 309 308 303 307 301 296 291 294 300 298 299 300 299 295 294
300 300 301 301 300 303 305 306 307 307 309 308 307 302 306 297 302 302 306 303 301 302 306 307 304 303 302 299 300 300 303 305 306 302 305 305 296 298 298 299 300 299 299 299 297 298 294
299 300 300 300 300 303 305 306 305 306 308 304 304 303 308 305 305 302 301 303 302 303 304 303 302 303 304 301 301 299 303 305 302 306 305 306 298 300 297 300 299 296 298 298 298 298 297
299 300 301 300 301 303 305 305 305 305 305 303 308 313 308 303 304 300 303 304 304 307 307 307 306 305 304 306 310 312 312 311 308 306 304 304 302 298 293 296 294 289 296 297 298 300 299
300 300 301 302 302 303 305 305 305 305 304 303 309 314 306 301 302 302 305 306 305 306 305 308 310 307 311 316 314 313 310 309 309 308 309 304 302 300 294 289 285 295 301 299 296 297 299
300 301 302 302 303 304 304 304 304 304 305 302 307 311 310 299 304 304 304 307 309 308 305 309 311 314 317 313 306 300 300 298 301 303 303 307 302 294 290 290 293 296 298 296 295 295 300
300 301 302 302 303 303 303 304 304 304 304 305 302 305 309 306 304 308 307 309 305 306 304 308 314 319 316 311 306 297 294 297 296 297 301 301 305 298 293 289 284 297 299 302 300 292 301
301 301 302 303 303 303 303 303 303 304 304 302 303 307 305 308 312 311 306 307 311 306 304 307 306 308 313 306 295 301 298 300 295 294 290 295 296 291 292 291 295 300 301 302 291 295 303
301 301 302 302 303 303 303 303 303 303 304 303 305 310 307 310 313 315 314 311 311 303 301 309 308 309 310 303 304 304 299 302 299 299 296 294 294 291 296 288 286 301 300 294 302 305 304
301 302 302 302 302 302 302 303 303 304 304 306 304 312 315 313 314 320 318 319 318 317 314 312 312 309 310 307 307 308 294 294 299 295 302 296 300 299 298 297 304 304 302 305 306 304 305

GFSGBSN_sfc_thetae_045.txt.gz
Theta_e
317 318 319 321 320 320 323 325 323 321 320 319 319 318 319 319 319 318 317 317 317 316 315 315 316 316 311 307 309 318 329 326 316 312 307 306 305 302 297 298 298 297 300 302 311 309 308
316 316 318 319 320 320 320 323 323 321 320 319 318 318 318 318 318 317 317 316 316 315 315 316 316 315 308 302 314 325 323 317 313 308 308 307 305 304 301 300 299 302 301 300 303 305 308
314 316 316 317 318 319 318 318 322 322 320 319 318 318 317 317 317 316 316 316 315 315 316 316 315 312 308 304 313 311 316 316 313 309 307 310 308 304 304 301 307 303 297 300 301 304 304
315 315 315 316 316 316 316 316 319 321 321 320 319 318 317 316 315 315 315 315 315 316 316 316 314 309 304 317 313 314 313 314 315 312 311 312 312 308 303 305 304 299 296 292 299 304 307
314 314 315 314 316 316 316 315 315 319 321 320 319 317 316 315 314 314 314 314 315 316 316 315 308 307 306 320 314 315 313 311 315 315 313 316 310 305 304 297 294 294 290 294 297 303 305
314 313 314 314 315 316 316 316 315 316 319 319 319 317 316 315 314 314 313 314 315 314 313 313 312 303 309 309 314 313 313 314 311 311 310 307 303 298 298 294 288 292 292 290 294 299 303
314 314 313 313 314 314 316 317 316 315 317 318 318 317 316 315 314 314 311 310 306 305 307 305 305 305 305 311 313 309 312 310 309 308 300 306 296 293 296 299 300 297 295 293 296 300 297
311 313 313 313 313 313 314 315 315 314 316 318 318 317 316 315 315 314 308 306 311 310 304 311 310 309 310 311 307 310 311 304 303 300 306 300 295 302 303 303 300 298 296 296 298 299 296
309 311 312 313 313 313 313 314 314 314 315 317 317 316 315 314 313 309 308 308 313 312 304 308 311 310 308 309 306 306 307 304 301 300 301 297 299 305 303 301 299 298 296 296 296 299 297
309 308 310 310 310 311 312 312 314 315 313 316 316 315 314 312 306 309 308 315 313 311 297 302 305 309 307 305 304 310 310 304 301 300 301 300 304 302 301 299 300 295 302 301 298 295 288
309 308 307 310 311 310 310 311 313 314 313 315 315 315 312 312 307 308 315 318 314 311 283 304 305 311 306 303 305 305 310 305 299 300 301 298 300 300 299 300 302 297 302 301 300 297 295
307 308 308 308 308 309 310 310 312 313 312 313 314 314 312 310 308 310 313 313 314 297 284 300 304 301 301 304 304 305 304 306 305 301 301 299 304 302 301 304 303 304 301 300 298 295 286
307 306 306 307 307 309 310 310 311 311 311 312 314 313 311 314 306 315 313 310 294 288 301 297 297 300 299 299 300 301 299 297 294 291 294 298 299 304 305 298 302 300 295 287 284 284 284
305 305 305 306 307 308 309 309 310 311 310 311 312 311 311 312 313 315 313 302 289 296 297 302 299 299 296 299 299 299 297 293 297 296 292 291 290 299 304 300 297 297 296 286 282 283 285
304 304 304 304 304 308 308 309 309 310 309 310 311 310 310 310 312 312 307 294 290 297 300 300 299 295 295 298 299 297 294 294 297 298 290 293 293 304 304 305 301 298 293 300 291 289 283
304 303 303 303 303 306 307 308 309 310 309 310 307 307 307 312 314 310 302 293 298 304 304 302 295 296 292 295 295 295 294 298 297 300 301 299 292 300 303 305 302 299 301 290 290 281 279
303 302 303 303 303 304 306 307 308 310 309 311 307 302 309 314 314 305 292 296 300 305 306 302 298 296 296 295 296 294 296 298 300 301 303 300 295 295 300 299 295 296 294 295 293 290 282
302 301 301 302 303 303 305 307 307 309 309 308 305 295 310 315 298 298 294 298 301 303 307 305 303 301 297 297 297 294 295 298 302 304 298 301 296 290 295 301 303 299 296 296 284 286 287
301 301 301 300 302 303 304 306 307 308 309 304 300 302 311 311 289 291 297 298 301 302 302 304 301 303 302 297 296 297 298 306 306 302 299 301 293 286 291 296 300 295 297 297 296 292 287
300 300 300 300 301 302 304 305 306 307 308 307 301 294 303 305 297 294 294 295 296 304 303 305 304 303 300 297 299 297 300 306 307 303 301 303 298 292 285 290 294 293 296 296 294 284 286
299 299 299 298 301 302 303 302 306 307 308 306 301 296 303 295 296 295 297 296 296 297 303 305 303 301 299 295 296 296 302 303 305 302 302 300 292 294 294 297 297 296 295 296 295 294 288
299 299 299 297 301 302 302 303 303 306 307 301 298 298 304 300 301 298 296 295 297 300 301 301 300 301 300 297 297 296 301 301 299 301 299 301 292 293 291 297 295 291 294 294 294 294 293
299 299 298 299 301 302 302 302 302 306 305 299 304 305 304 298 299 297 295 297 298 302 304 305 302 301 298 301 302 305 304 305 303 300 297 298 294 288 285 291 290 283 291 293 294 295 293
299 300 300 300 300 300 300 300 304 305 305 303 303 305 302 294 299 297 298 299 300 302 302 305 304 302 305 310 308 306 304 305 305 304 304 297 294 288 283 283 275 291 296 295 293 294 294
299 300 300 301 301 300 301 304 304 305 306 302 303 303 303 288 300 300 298 299 302 304 303 306 307 309 310 307 298 294 291 291 296 302 300 303 292 286 281 281 288 292 294 294 291 290 296
299 300 300 300 300 301 302 304 304 305 305 302 301 303 298 298 298 303 298 300 299 300 299 303 311 310 309 304 293 287 285 291 291 293 300 299 297 285 283 279 275 290 295 299 296 285 297
300 300 299 300 301 301 302 303 304 304 305 302 299 303 298 297 304 303 298 300 305 301 298 301 305 305 307 288 288 285 286 297 287 287 285 284 285 282 278 278 285 297 298 299 283 286 298
300 300 300 301 301 302 303 303 304 304 304 301 299 305 300 299 303 308 306 303 305 302 295 302 302 303 300 291 290 286 286 289 290 296 290 287 284 280 284 283 281 298 296 290 295 298 299
300 300 301 301 302 303 303 303 303 304 304 303 298 305 308 301 302 311 314 313 311 308 306 303 305 304 305 298 294 291 290 287 288 284 298 288 293 288 290 288 298 298 299 301 301 299 299

GFSGBSN_sfc_thetae_048.txt.gz
Theta_e
317 318 318 319 320 320 321 322 323 321 320 320 319 318 319 319 319 318 316 316 316 317 316 315 316 316 309 305 306 316 327 327 316 310 305 303 302 300 296 297 298 295 298 300 306 307 306
316 316 317 317 318 319 320 320 321 322 320 319 318 318 318 318 318 317 316 316 315 316 316 316 316 314 307 300 311 322 317 313 311 307 305 304 303 304 299 298 298 302 302 302 305 307 308
316 315 315 316 317 318 319 318 317 320 321 320 318 318 317 317 317 316 315 315 315 315 315 316 315 311 306 301 309 311 313 314 311 307 305 308 307 302 302 299 304 303 296 298 304 305 305
315 315 315 315 315 316 316 316 316 317 321 321 319 318 317 316 315 314 314 314 314 315 316 316 314 308 301 315 313 312 310 310 313 309 308 309 309 306 302 302 302 298 294 290 297 303 305
314 314 315 315 315 315 316 316 315 315 317 320 320 318 317 315 314 313 313 313 314 315 316 315 306 305 303 318 313 316 313 309 311 310 308 311 308 302 302 295 293 294 287 292 295 302 304
314 313 314 314 314 314 315 316 315 315 315 317 319 318 317 315 314 312 312 313 313 313 313 313 311 299 306 304 312 312 311 311 308 309 307 306 300 296 295 292 287 289 291 290 292 298 301
313 313 313 313 313 314 315 315 315 315 315 316 318 318 317 315 314 313 309 307 304 305 306 302 301 302 302 309 312 308 310 308 307 306 298 304 296 292 296 297 299 297 294 293 295 299 298
311 312 313 314 313 313 314 314 314 315 315 315 317 318 317 315 314 313 307 302 306 306 299 308 309 308 310 310 304 306 309 302 301 298 303 298 293 301 302 302 300 297 294 294 296 299 297
311 311 311 313 314 313 312 313 312 314 314 314 316 317 316 314 313 309 306 306 311 311 299 306 310 309 310 312 303 304 305 303 300 299 299 295 298 303 302 298 297 295 294 294 295 296 294
310 310 310 311 313 313 312 312 313 313 313 313 314 316 314 312 306 307 305 313 312 309 294 299 305 308 309 305 299 308 308 303 299 298 299 298 302 301 299 298 298 293 300 299 297 292 286
308 309 309 309 310 310 310 311 311 313 314 313 313 315 312 312 306 306 312 311 310 309 277 299 304 314 306 299 303 304 308 303 296 299 299 296 298 298 297 298 301 295 299 299 298 293 291
308 308 308 309 308 309 309 310 310 311 313 312 312 314 312 310 307 307 311 311 311 294 281 299 304 299 296 298 300 303 303 304 303 299 299 297 302 300 299 303 302 302 297 298 296 293 285
305 307 307 308 308 307 308 309 309 309 312 311 311 313 312 312 303 311 313 309 294 287 299 296 296 297 297 296 298 300 298 295 292 290 291 296 297 302 304 299 300 298 292 284 282 282 283
303 305 306 307 307 307 307 308 309 309 311 310 310 311 312 311 308 311 310 301 287 293 295 301 297 296 294 297 297 297 295 292 295 294 291 289 287 299 303 298 295 297 293 284 280 281 284
303 303 306 306 306 306 307 306 308 308 309 309 310 311 310 311 311 309 304 292 287 295 299 297 296 293 293 296 296 295 293 292 295 295 289 290 292 301 302 303 301 296 292 297 289 286 282
303 303 303 305 305 305 306 307 307 308 309 309 304 306 307 311 312 308 300 293 295 302 303 301 292 294 290 293 293 293 292 296 296 298 297 295 290 299 303 303 301 297 299 290 290 281 280
302 303 302 305 304 304 305 305 306 308 308 309 301 300 309 314 311 301 292 293 298 303 303 301 298 295 294 293 294 292 293 296 298 297 299 297 293 293 299 297 295 294 292 293 291 287 282
301 303 302 304 303 303 304 303 306 307 308 306 299 292 308 313 296 295 294 297 299 300 304 302 303 301 296 295 294 293 293 296 300 302 297 299 295 288 293 300 301 298 294 295 284 284 285
301 302 302 303 303 302 303 303 305 306 307 301 295 298 308 308 290 289 295 297 299 299 301 301 301 302 300 295 292 295 295 303 304 300 297 299 292 285 290 295 298 295 296 295 294 288 285
301 302 303 302 302 303 303 303 304 305 307 302 297 291 300 303 299 293 291 294 295 300 299 300 300 302 299 296 298 295 298 303 304 302 302 301 294 290 285 289 292 290 295 294 291 282 285
301 302 302 301 302 302 303 303 304 305 307 301 297 293 297 292 295 294 294 294 294 293 299 302 300 299 298 293 294 294 300 300 302 301 301 298 291 292 293 294 295 293 293 293 291 291 286
301 302 301 301 301 302 302 303 303 304 306 298 292 294 298 296 297 295 294 292 293 295 297 296 298 300 300 295 295 294 299 298 296 299 297 298 290 291 290 294 293 290 291 291 292 292 292
300 300 300 300 300 301 302 301 303 304 305 296 299 301 299 295 295 293 292 293 294 296 298 299 301 300 298 300 300 300 303 303 301 297 295 295 292 286 284 288 288 283 290 291 291 292 292
300 299 299 299 300 299 300 301 302 303 305 300 299 300 298 291 296 294 296 296 295 296 294 301 300 299 303 307 304 302 301 303 303 300 300 293 291 285 281 282 276 291 296 294 291 291 292
299 299 300 299 299 298 300 301 302 303 302 301 302 301 298 289 297 298 297 296 298 299 298 299 304 306 307 303 295 292 289 291 294 298 299 299 290 284 280 280 286 291 292 291 290 289 293
299 299 299 299 299 300 301 301 302 302 301 302 302 303 297 295 294 302 299 298 295 295 296 301 308 308 308 298 289 285 284 290 290 292 298 296 292 286 281 278 276 288 293 296 295 284 295
299 299 299 300 300 300 300 300 301 301 301 302 300 303 299 293 299 302 299 297 299 297 295 300 303 301 303 287 286 284 285 295 286 286 284 284 284 281 276 277 283 293 296 297 283 285 296
299 299 299 300 300 300 300 301 301 301 304 303 298 303 298 294 298 304 304 298 300 300 295 299 299 299 294 288 289 286 282 289 288 292 288 286 283 279 281 277 279 298 295 289 291 296 297
299 299 299 300 300 300 300 301 303 304 304 301 295 304 305 298 299 304 305 304 304 305 303 301 300 301 301 295 292 290 288 285 287 284 295 287 289 286 288 286 295 298 297 298 299 297 297

GFSGBSN_sfc_thetae_051.txt.gz
Theta_e
317 317 318 318 319 319 320 321 320 322 321 320 320 319 319 319 319 318 317 315 316 316 316 316 316 316 308 300 301 313 326 327 318 307 303 301 300 299 294 295 295 292 298 300 301 306 305
315 316 316 316 317 317 317 319 319 318 320 320 319 318 318 318 318 318 316 315 315 315 316 316 316 315 305 294 307 316 314 311 309 305 303 302 302 302 299 296 296 300 299 302 305 305 306
315 315 316 315 315 316 317 317 318 317 318 320 319 318 318 318 317 317 316 315 314 314 315 316 315 311 304 297 307 309 309 309 309 306 302 305 305 301 301 298 302 301 294 300 303 304 304
315 314 315 315 315 315 315 315 317 316 316 319 320 319 317 316 316 315 314 313 313 314 315 315 314 306 298 310 311 313 309 309 310 309 305 307 306 303 300 301 300 297 293 291 299 303 304
314 314 314 314 314 314 314 315 315 316 316 315 319 319 317 316 315 314 313 313 313 315 315 315 304 302 301 315 309 314 312 307 309 309 306 310 306 300 300 294 292 293 285 289 293 302 301
314 313 313 313 313 314 314 314 315 315 315 315 315 318 317 316 314 313 312 313 313 312 312 313 310 298 300 301 310 310 311 309 307 307 305 304 299 295 294 292 285 288 290 288 291 298 300
313 313 313 313 313 314 314 313 314 314 314 315 315 316 318 316 315 313 309 306 301 303 305 301 298 297 300 306 311 306 309 307 306 304 296 302 294 291 294 296 296 294 292 290 292 297 297
312 313 313 313 313 314 313 313 313 313 314 314 314 316 317 316 314 313 308 301 303 304 297 305 306 305 308 309 304 307 307 301 300 295 300 295 291 298 301 300 298 295 293 292 295 298 297
309 311 312 312 312 313 314 313 312 312 313 313 313 314 316 315 312 309 304 304 310 308 296 302 306 306 307 309 304 305 304 301 298 297 298 293 296 301 300 296 296 294 292 292 293 295 292
307 308 310 311 311 311 312 313 311 312 312 312 312 313 315 312 306 306 305 312 310 308 291 295 304 306 308 308 299 306 306 301 300 296 298 295 300 298 297 296 297 291 297 297 295 291 285
306 307 309 310 310 310 310 312 311 311 311 312 312 312 314 312 305 304 309 310 309 306 276 295 303 311 307 300 300 300 306 301 295 297 297 294 296 296 295 296 298 294 298 296 295 292 289
305 306 307 308 309 309 309 310 310 310 311 312 312 312 313 310 307 306 308 310 308 289 278 295 302 300 296 297 297 300 302 302 301 298 297 295 300 297 297 300 300 300 296 295 294 291 284
304 304 305 305 307 308 309 309 309 310 310 310 311 311 312 312 304 309 311 307 292 282 295 294 296 296 294 292 294 297 295 294 291 289 289 294 295 299 302 296 298 296 291 283 281 281 282
304 304 304 305 304 308 308 308 308 309 309 309 310 309 312 313 310 308 311 300 286 291 293 300 296 294 291 294 294 296 293 290 293 292 289 288 286 296 300 297 294 293 291 283 279 279 282
305 304 304 304 304 304 307 308 307 308 308 309 309 307 309 312 311 307 305 292 287 292 298 295 294 290 290 294 294 293 292 291 293 294 289 288 289 299 300 301 298 295 290 294 287 285 281
305 304 303 303 304 303 306 307 307 307 308 308 302 301 304 312 313 305 297 292 294 299 302 300 290 292 288 291 292 291 291 294 294 296 297 294 287 297 300 300 300 296 297 287 287 280 279
305 304 303 303 303 303 305 306 306 306 307 308 299 296 303 312 311 300 290 292 297 301 301 299 296 293 292 291 292 290 292 294 296 295 296 295 291 290 297 294 292 292 290 290 290 285 280
305 304 303 303 303 303 304 306 306 306 306 305 295 288 306 311 297 295 291 295 299 299 301 300 300 299 297 293 292 291 292 295 297 299 294 296 292 286 291 297 298 295 293 292 283 283 283
304 303 303 302 302 302 304 305 305 305 306 301 292 294 309 307 290 291 294 295 298 298 298 298 298 300 299 293 290 293 294 299 301 298 296 297 290 284 287 292 296 293 295 295 291 286 283
304 303 302 302 302 302 304 304 304 304 306 301 294 287 298 302 299 294 292 292 293 300 298 299 298 299 298 295 295 293 294 301 301 300 301 299 293 289 284 288 291 290 293 293 291 282 284
304 303 302 301 302 302 304 304 304 304 305 300 294 288 294 290 293 296 295 293 292 293 297 298 295 296 296 292 293 292 298 299 300 299 299 297 290 291 291 292 292 291 291 291 290 289 285
303 302 301 301 302 302 303 303 303 302 303 297 291 291 295 292 294 294 294 292 292 295 295 294 294 299 297 294 295 292 297 296 296 297 296 296 288 288 287 291 292 289 291 291 291 291 290
303 302 301 301 301 302 302 302 302 302 302 296 295 298 295 293 292 291 292 292 292 296 297 298 296 296 295 298 301 300 301 300 299 297 293 293 290 286 284 287 287 283 289 291 291 291 291
302 301 301 301 301 302 302 301 302 302 302 300 295 297 294 286 291 291 292 295 293 295 294 297 298 295 300 305 303 301 300 300 300 298 298 291 288 284 281 282 275 289 294 293 290 289 290
300 300 301 301 302 301 301 301 302 302 303 299 297 298 296 283 294 293 293 294 295 296 295 296 298 301 302 303 295 292 288 290 292 297 297 296 288 282 280 280 285 289 290 290 289 287 292
300 301 301 301 301 300 301 301 302 302 303 299 299 300 298 293 293 298 294 295 292 292 293 295 300 305 307 296 288 286 285 289 289 291 296 294 291 286 279 278 276 288 293 294 293 283 294
300 301 300 300 299 300 300 300 301 301 303 300 300 303 299 292 298 300 296 294 297 295 292 293 300 301 303 287 285 284 284 293 286 285 285 284 284 283 278 278 283 291 294 294 283 285 294
299 299 299 299 299 299 299 299 300 300 301 300 298 304 299 293 295 302 301 297 298 297 291 295 298 297 293 289 287 284 281 288 287 290 287 288 283 279 280 277 280 295 293 287 290 293 295
299 299 299 299 299 299 299 300 300 301 302 300 296 303 304 295 296 302 301 302 301 300 298 298 297 298 298 293 289 287 285 282 286 284 293 286 290 287 288 286 293 296 294 295 296 296 295

GFSGBSN_sfc_thetae_054.txt.gz
Theta_e
316 316 317 317 317 317 317 318 319 319 319 321 320 320 320 321 320 319 317 316 316 316 316 316 317 316 308 297 298 306 325 327 316 308 301 300 299 297 293 294 293 290 295 299 300 305 304
314 316 316 316 316 315 315 317 317 318 318 317 320 319 319 319 319 318 317 316 315 314 315 316 316 315 303 292 303 312 310 310 308 303 302 301 300 301 298 296 293 297 297 300 304 304 305
313 314 314 315 315 315 315 315 316 316 317 317 317 319 319 319 318 317 317 315 314 314 315 315 316 310 303 297 306 307 310 306 307 305 300 303 302 300 299 297 300 299 293 300 302 303 303
315 314 314 314 314 314 314 314 314 315 316 316 316 318 318 317 317 316 315 314 313 314 315 315 314 306 296 307 309 311 309 309 308 307 304 304 304 301 299 300 298 294 291 291 297 302 302
314 314 314 313 313 314 313 313 313 314 315 315 315 315 317 316 315 315 314 313 313 314 315 314 304 302 297 311 305 308 311 307 307 307 304 308 304 298 298 292 290 291 285 288 294 301 300
311 314 314 313 312 312 313 313 311 313 314 315 315 314 315 316 316 314 312 313 313 312 312 313 309 299 299 299 306 308 310 308 305 305 303 302 298 294 293 291 284 286 289 288 289 296 298
311 312 313 313 313 313 313 313 313 312 313 314 314 315 315 315 316 314 309 304 298 301 306 301 300 297 297 306 310 305 307 305 304 302 295 300 293 289 293 295 295 292 291 289 292 295 296
308 310 310 313 312 313 313 313 312 312 312 313 314 314 314 315 316 313 309 300 302 304 297 304 305 303 305 308 303 306 306 299 298 294 298 294 291 296 298 298 295 293 291 290 293 296 294
307 307 309 309 311 312 312 312 312 312 311 312 313 313 313 314 313 310 306 303 309 308 295 299 303 302 304 307 302 302 303 300 296 294 296 292 294 299 298 295 294 292 291 291 291 294 292
307 307 307 308 310 311 312 311 311 312 311 311 311 311 311 313 308 307 302 310 311 308 288 293 300 304 307 307 300 308 304 301 298 294 296 294 298 296 295 294 295 289 295 294 293 291 285
307 307 306 307 308 309 310 310 310 311 311 311 310 311 311 312 306 303 307 309 310 305 276 293 302 310 307 299 299 299 304 300 296 296 296 292 294 294 293 294 297 293 297 295 293 290 288
308 307 307 306 306 307 309 309 309 309 311 310 310 311 311 311 309 305 310 310 308 290 279 291 301 298 298 295 296 298 300 301 299 297 295 294 298 296 295 298 297 298 295 293 292 289 283
308 307 307 306 306 306 307 309 309 309 310 310 309 310 310 313 306 308 311 305 291 283 293 291 294 295 293 292 293 295 294 293 291 288 288 292 293 297 299 294 297 294 289 282 282 281 281
308 307 306 306 306 305 306 308 308 308 309 309 309 309 309 311 311 308 310 298 284 289 291 298 294 293 290 291 292 293 291 290 291 291 288 287 286 294 298 295 292 292 290 283 279 279 281
307 307 307 306 305 305 305 306 308 308 308 308 308 302 304 308 312 309 303 290 285 291 296 294 293 289 288 292 291 292 290 289 292 293 288 286 287 296 298 299 296 293 288 292 285 284 280
307 307 307 305 305 304 304 305 307 307 308 308 302 300 299 310 313 306 296 290 292 297 300 299 289 291 286 289 290 289 289 293 293 295 295 292 285 295 297 298 297 294 296 287 285 280 279
307 307 307 306 305 304 304 304 306 307 307 307 301 293 298 311 311 300 289 291 296 300 300 296 295 292 290 289 290 288 289 292 295 294 295 293 289 288 295 293 291 291 289 289 288 284 280
306 306 306 306 304 304 304 304 304 307 306 304 297 286 302 310 296 296 292 293 298 299 300 298 298 298 295 292 290 290 290 293 296 296 292 295 289 284 290 295 296 293 292 290 283 283 283
306 306 306 305 304 304 303 303 303 306 306 299 292 290 307 304 287 290 295 295 297 297 297 296 296 298 299 292 288 291 292 297 297 296 294 295 288 282 285 290 293 292 293 293 290 286 283
305 305 305 305 304 304 303 303 302 305 306 300 292 283 296 298 297 292 292 292 291 299 297 297 296 298 296 294 295 290 292 298 299 297 300 298 290 286 283 286 290 289 292 292 290 282 284
305 305 305 305 304 303 303 303 302 305 305 300 293 286 293 288 289 293 293 293 290 291 297 297 294 294 294 291 291 290 295 297 298 299 297 295 288 289 289 290 291 290 290 290 289 288 285
304 304 305 304 304 303 303 303 302 305 305 297 289 287 295 289 291 291 293 291 290 292 294 293 292 295 295 292 294 291 296 294 294 295 294 294 288 288 287 289 289 288 289 289 289 289 288
303 302 305 304 303 303 302 302 303 304 303 295 295 294 294 291 291 288 289 291 291 295 297 297 296 294 292 296 299 300 299 299 298 294 292 291 288 284 284 286 287 283 288 289 289 290 290
303 300 304 303 302 302 302 302 303 303 303 298 296 294 291 284 290 288 290 294 292 294 293 297 298 294 297 304 303 300 298 298 297 296 296 289 287 283 280 281 275 289 292 292 291 290 290
303 303 304 303 302 302 301 302 303 303 303 300 296 294 293 285 290 290 291 291 293 295 295 296 298 300 301 299 291 290 288 290 292 295 295 294 286 282 281 280 284 287 290 289 288 287 291
303 303 302 302 301 301 301 302 302 302 303 300 299 297 297 291 288 294 291 292 291 290 290 293 299 301 302 294 287 283 283 289 288 290 294 292 289 285 279 277 276 286 291 292 291 283 292
302 302 301 301 300 301 301 301 301 302 303 300 298 299 296 290 295 295 292 291 295 292 288 291 294 295 300 282 281 282 285 292 285 286 286 284 282 281 275 277 283 292 292 293 283 285 292
301 300 300 300 301 301 301 301 301 302 302 300 297 301 297 293 295 299 298 294 294 295 287 292 294 294 290 287 285 286 281 288 287 290 288 288 285 279 279 277 281 294 292 288 290 291 293
299 300 300 300 300 300 300 300 301 302 302 300 294 303 303 295 295 300 299 300 298 298 296 294 293 294 295 291 288 284 283 282 286 284 291 288 291 287 288 288 293 294 293 294 294 294 294

GFSGBSN_sfc_thetae_060.txt.gz
Theta_e
316 314 315 315 315 316 315 316 315 314 314 315 316 317 318 319 322 321 319 318 317 318 317 316 316 318 315 306 305 314 328 328 320 316 311 307 305 306 303 304 305 303 305 306 309 310 308
314 315 316 314 314 314 314 315 315 314 313 314 314 315 317 317 319 320 319 318 317 316 316 316 316 316 310 300 311 318 319 317 315 314 310 309 308 310 306 305 305 306 306 307 310 309 310
310 312 313 315 315 314 314 313 314 314 313 313 314 315 315 316 316 318 319 318 316 316 316 316 316 314 307 305 313 316 314 315 316 314 309 311 311 309 309 305 308 307 303 306 310 310 310
309 309 310 312 313 314 313 313 313 313 313 313 313 314 314 314 314 315 316 316 316 316 316 316 315 312 302 313 315 312 316 315 316 315 313 313 313 311 309 310 307 303 303 299 308 310 311
310 310 309 310 311 313 314 313 312 312 313 313 312 313 313 313 313 313 315 315 316 315 315 315 312 310 302 313 309 312 313 313 315 314 315 312 312 310 309 303 300 301 297 297 302 311 309
311 311 311 311 310 311 312 313 312 312 312 312 312 312 312 313 313 313 314 314 316 313 315 314 313 305 308 304 309 314 315 313 311 312 310 309 309 305 305 302 293 295 296 298 298 306 308
311 312 311 311 310 310 311 312 313 312 311 311 312 311 312 312 313 312 315 317 311 307 310 304 305 305 304 310 315 312 315 311 310 310 304 309 303 300 301 302 303 301 299 297 300 304 305
309 310 311 312 311 311 309 310 311 312 311 311 311 311 311 312 312 313 314 311 310 309 301 308 307 308 310 311 305 311 315 307 306 303 306 304 300 304 305 304 302 301 298 298 301 303 302
309 309 310 311 311 311 310 309 309 311 311 311 311 311 311 311 312 312 311 314 316 314 302 303 307 305 306 309 304 307 311 307 304 303 303 300 302 305 304 302 301 301 299 298 298 302 304
309 308 309 310 310 311 310 310 309 310 311 311 310 310 309 310 307 312 311 317 317 316 297 296 301 305 306 307 302 310 313 307 304 301 303 302 306 302 302 301 302 298 303 301 299 298 294
309 309 308 309 309 309 309 309 309 309 310 311 310 310 309 309 309 307 313 319 318 313 282 297 301 311 308 302 303 305 312 307 301 301 303 299 302 301 300 301 303 299 303 302 301 299 298
309 309 309 309 308 308 308 308 308 308 308 310 309 310 309 308 308 313 317 318 314 295 282 293 303 302 301 302 302 306 305 308 308 303 303 302 306 304 303 304 304 305 302 301 302 299 292
308 308 308 308 308 308 308 308 308 307 307 308 309 309 308 309 305 316 318 312 294 286 295 292 297 300 300 297 299 301 300 300 298 295 296 300 301 304 305 302 304 303 300 292 291 291 290
308 308 308 308 308 308 308 308 307 307 307 308 308 308 308 309 311 317 312 299 287 290 292 299 298 299 296 298 298 300 299 297 301 300 297 294 292 300 305 303 300 301 300 293 285 287 290
309 308 308 308 308 308 308 308 307 307 306 307 308 306 304 308 311 312 303 289 288 292 296 294 297 295 293 297 298 299 298 297 300 302 295 295 294 302 304 305 304 300 297 301 294 294 293
308 309 308 308 308 308 307 308 307 307 306 307 303 301 300 308 312 303 295 290 293 298 299 300 292 297 292 292 294 297 296 301 300 303 305 300 293 301 303 306 305 303 304 295 297 286 285
308 308 308 308 307 307 307 307 307 306 306 307 301 293 303 308 307 295 288 291 295 301 302 298 297 296 295 294 294 296 296 299 303 302 304 302 299 298 302 300 299 300 298 299 299 296 289
305 306 307 307 307 307 307 307 307 306 306 305 296 286 307 306 289 291 289 295 297 298 303 301 301 300 298 296 294 295 296 299 304 304 299 303 299 294 296 302 304 303 301 301 294 291 294
305 305 306 307 306 307 307 307 306 306 306 302 291 292 305 304 283 285 293 295 297 297 298 299 298 300 303 299 293 296 297 303 303 303 301 303 297 292 293 298 302 299 301 301 300 298 293
304 304 305 305 306 306 306 306 306 305 305 304 292 286 293 295 297 290 290 291 292 298 298 300 299 300 298 297 301 296 297 300 303 304 302 304 299 295 291 294 298 296 298 300 299 294 294
303 303 304 304 305 305 306 307 306 305 305 301 293 291 293 284 289 291 293 293 291 292 298 301 298 298 297 294 297 297 298 301 300 300 303 304 296 298 298 298 298 297 297 298 296 297 294
304 304 303 303 304 305 305 306 306 305 305 296 290 292 296 292 293 291 291 291 291 293 295 295 296 298 299 296 297 295 298 300 300 302 302 303 296 298 295 298 297 295 297 298 298 298 299
304 304 303 303 304 305 305 306 305 304 304 294 296 301 297 292 291 289 291 290 292 296 298 299 299 297 296 298 301 303 303 302 302 301 301 300 298 296 291 296 295 290 296 298 299 301 301
303 304 304 303 304 304 305 304 304 304 303 303 298 299 294 289 290 288 290 292 292 295 294 299 301 298 300 304 303 303 303 301 302 304 306 300 299 298 292 291 286 297 302 303 300 301 303
302 303 303 303 304 304 304 304 304 303 304 301 300 300 295 291 292 291 290 291 295 297 296 297 301 303 306 301 295 291 293 295 298 302 303 304 300 294 292 290 295 295 297 299 299 299 305
303 302 303 303 303 303 303 304 303 303 303 301 301 307 301 294 291 295 291 292 292 294 296 298 304 308 305 299 295 287 285 290 293 296 300 300 300 298 291 290 288 297 303 305 304 295 305
303 302 302 303 303 303 303 303 303 303 303 301 302 307 302 293 297 297 293 292 297 297 295 298 300 301 304 296 292 290 289 295 291 292 291 293 293 293 292 292 296 301 301 303 293 297 306
302 302 303 303 303 303 303 302 302 302 303 303 301 307 304 296 298 299 300 296 297 299 295 299 298 299 298 293 293 293 293 294 295 297 295 294 293 292 294 291 289 301 299 298 305 307 308
301 302 302 303 303 302 302 302 302 302 303 303 297 305 307 301 298 303 303 305 303 303 301 303 298 299 300 296 297 297 295 295 295 291 300 295 298 297 296 298 305 304 307 308 308 308 306

GFSGBSN_sfc_thetae_063.txt.gz
Theta_e
313 314 314 315 316 315 314 315 315 315 314 314 314 315 314 316 318 319 320 319 319 319 319 318 318 318 316 309 310 319 327 328 317 317 314 310 307 307 304 306 307 304 305 307 308 309 311
311 312 312 314 313 315 314 315 314 314 314 313 313 314 315 315 316 317 318 318 318 318 318 318 318 316 313 303 315 318 319 324 318 316 313 312 308 310 308 307 306 308 307 307 309 309 310
311 311 311 312 312 313 314 314 314 313 313 313 313 313 314 315 315 315 316 316 317 318 318 318 317 317 311 308 318 318 318 318 319 316 312 312 313 311 311 307 310 308 303 306 307 310 308
312 312 311 311 311 311 312 314 314 313 313 313 313 313 313 314 313 314 314 314 316 317 318 316 316 317 308 318 319 316 316 317 319 317 315 315 315 313 311 312 308 304 304 299 305 308 310
313 313 312 312 311 310 311 312 314 314 313 312 313 312 312 312 312 313 313 314 315 318 316 315 316 314 306 315 311 314 314 312 316 316 316 314 314 310 310 304 301 302 297 298 302 309 307
310 312 313 312 311 311 311 311 311 313 313 312 312 312 311 311 312 312 312 313 316 314 316 318 316 307 311 306 312 312 315 313 314 313 312 311 310 306 306 303 295 297 297 300 299 305 306
309 309 311 311 312 312 312 311 310 311 313 312 312 312 312 311 312 312 312 317 313 312 315 306 306 304 307 311 315 312 313 312 313 311 304 308 303 300 304 305 304 302 300 298 302 306 304
310 310 310 310 310 312 311 312 310 310 311 312 312 311 311 311 312 312 315 310 310 313 302 310 310 309 312 312 307 311 313 306 306 303 307 305 300 306 306 304 303 302 300 298 302 304 304
309 310 310 310 310 311 311 312 310 310 310 311 312 311 311 310 311 310 312 312 319 317 304 304 307 307 307 309 305 308 311 308 304 303 304 302 304 307 304 303 301 302 300 299 299 304 305
309 309 310 310 310 310 310 311 311 310 309 310 311 310 310 310 305 309 311 317 320 320 297 297 303 306 307 307 303 311 312 309 306 302 304 303 306 304 303 302 303 298 304 302 301 299 294
309 309 309 309 310 309 309 309 310 310 309 309 310 310 310 308 307 308 314 319 321 315 282 300 303 312 309 304 303 304 313 308 302 303 304 301 302 303 301 302 305 301 305 302 302 300 300
309 309 309 309 309 309 309 309 309 309 309 309 310 310 309 307 308 309 316 320 318 296 283 295 304 301 303 303 303 306 306 310 308 303 304 304 307 305 304 306 305 306 303 302 302 300 293
309 309 309 309 309 309 309 309 309 308 308 308 309 309 309 310 304 311 314 312 294 286 296 294 299 302 301 299 300 302 301 301 298 294 297 301 302 306 307 302 305 304 300 292 291 291 291
308 309 309 309 309 309 308 308 308 308 308 307 308 308 308 309 312 314 312 299 286 291 292 300 300 302 298 299 299 300 300 298 302 300 298 295 293 302 306 303 301 302 301 294 286 288 290
308 308 308 309 309 309 308 308 308 308 308 307 307 307 304 310 313 309 297 287 289 292 296 295 299 297 298 299 297 298 298 297 300 302 297 295 295 304 305 306 305 302 298 303 296 297 293
308 308 308 308 308 308 308 308 308 308 307 307 303 302 302 311 313 304 290 289 292 297 297 298 293 298 295 296 294 296 296 300 300 303 306 301 295 302 304 306 306 304 306 296 297 287 287
308 308 308 308 308 308 308 308 308 307 307 306 300 294 304 311 310 297 285 291 296 299 300 297 296 295 298 296 296 295 296 300 302 302 305 303 300 298 303 301 299 301 300 301 300 296 290
306 307 307 307 308 308 308 308 307 307 307 304 299 287 304 308 289 294 287 294 297 297 301 301 303 299 299 300 295 294 296 300 304 305 300 304 301 296 298 304 305 304 301 301 295 293 296
305 305 305 306 306 307 307 307 307 307 307 301 292 293 306 304 285 289 292 293 295 296 297 299 299 303 303 300 296 296 297 304 305 304 302 303 298 293 295 300 303 300 303 303 302 300 294
304 304 304 305 305 306 306 307 307 307 307 301 293 285 294 297 297 293 290 290 291 298 298 300 300 303 302 300 302 298 297 301 305 305 304 305 300 297 292 296 300 297 299 301 300 296 295
303 303 303 304 304 305 306 306 307 307 306 300 293 290 293 286 290 293 293 292 290 290 297 299 298 299 300 296 298 298 300 300 302 302 304 304 296 298 299 300 300 299 298 299 298 299 295
303 303 302 303 303 304 305 306 307 307 305 297 289 293 296 294 294 293 292 291 290 292 295 295 296 298 300 298 298 297 299 300 299 303 303 305 297 299 296 299 299 296 298 299 299 299 298
303 303 303 303 303 304 304 305 305 306 304 295 299 301 298 292 293 292 292 291 292 295 297 298 297 298 298 301 303 303 304 302 304 302 301 302 300 297 293 298 298 293 297 298 299 301 300
304 303 303 303 303 304 304 304 304 305 304 299 302 300 294 289 292 292 293 293 292 295 294 298 300 298 303 306 304 303 302 301 302 302 306 301 300 299 294 294 287 298 304 303 300 302 303
303 303 303 303 304 304 303 304 304 304 305 301 303 301 296 291 293 292 293 293 294 296 295 298 300 303 307 302 296 291 293 294 297 301 303 306 302 297 293 292 295 298 300 300 299 299 304
303 303 303 303 303 303 303 303 304 304 304 302 304 307 302 295 292 296 293 294 292 293 294 298 305 309 306 299 295 287 286 290 291 295 302 303 305 300 295 289 287 297 303 307 306 296 306
303 303 302 303 303 302 303 303 303 304 303 302 304 310 303 295 297 298 294 293 297 296 294 298 301 302 305 297 293 290 288 292 290 292 292 296 298 295 294 292 296 302 304 307 295 298 307
303 303 302 302 303 302 303 303 303 304 303 301 303 309 304 296 298 300 301 297 296 298 295 299 297 300 300 294 293 293 294 293 293 297 296 294 294 294 295 293 290 305 303 299 306 310 310
302 302 302 302 302 303 303 303 303 303 303 303 302 308 308 302 299 305 306 306 303 302 300 300 299 299 300 296 298 298 297 298 295 292 302 295 300 297 299 299 307 306 307 309 311 311 312

GFSGBSN_sfc_thetae_066.txt.gz
Theta_e
311 312 312 313 313 314 315 316 315 315 315 314 313 314 314 314 314 316 317 317 318 320 320 320 320 319 317 311 310 319 328 326 316 313 312 311 307 305 301 304 306 304 304 305 307 307 307
312 311 311 311 311 311 313 314 316 314 314 314 314 313 314 314 314 315 315 315 316 318 319 319 320 318 315 304 318 318 318 321 316 313 312 312 308 308 305 304 305 306 306 306 307 306 307
312 313 313 312 312 311 311 313 314 315 314 313 313 313 313 313 314 314 314 314 314 316 318 319 319 318 312 307 318 319 318 316 318 316 311 313 312 307 309 305 309 307 302 304 305 306 306
312 313 313 312 312 311 311 311 312 313 314 314 313 312 312 312 312 313 313 313 313 315 318 319 318 316 306 316 319 317 317 315 317 318 315 315 313 310 308 310 307 303 303 297 304 306 308
312 312 312 313 313 312 312 311 311 312 313 314 313 312 312 311 311 311 312 312 313 315 317 318 314 313 304 316 312 315 316 311 313 316 315 314 312 307 308 302 299 300 294 297 300 307 306
310 311 311 311 311 312 312 312 311 311 312 313 313 312 312 311 311 311 311 311 313 315 316 318 316 306 309 305 312 314 315 313 310 312 309 308 306 302 303 300 292 296 297 299 298 304 306
308 309 310 311 311 312 312 313 312 311 311 312 313 313 312 311 311 311 309 311 308 309 311 308 306 304 305 313 313 310 313 310 309 309 302 305 299 297 301 303 303 302 299 298 301 305 304
310 310 309 309 310 311 309 310 311 311 311 311 311 312 312 312 311 311 309 304 306 313 302 310 311 310 311 312 306 309 314 304 304 301 304 301 297 303 305 305 302 301 299 298 302 305 302
310 310 310 310 310 310 310 311 310 310 311 310 310 311 312 311 311 308 305 305 314 316 302 301 304 303 306 309 304 306 310 305 302 301 301 299 302 306 304 303 300 300 298 298 299 302 303
309 309 310 310 311 311 311 311 310 310 311 310 309 311 311 310 303 307 303 311 313 318 295 293 299 304 305 306 300 310 312 305 303 299 301 301 305 304 302 301 302 297 303 302 300 298 293
309 309 309 310 310 310 310 310 310 310 310 310 310 310 310 309 307 305 311 316 318 315 280 297 301 312 308 302 302 303 311 307 299 300 301 299 302 301 300 300 304 300 305 303 301 298 298
308 309 310 310 310 309 309 309 309 309 309 310 309 310 310 307 307 308 312 311 314 293 280 294 304 301 301 301 301 304 305 310 307 302 303 302 307 305 303 305 305 305 302 302 301 298 291
308 309 309 309 309 309 310 309 309 309 309 309 309 309 309 308 302 311 314 305 291 283 294 292 298 301 299 299 299 300 299 300 297 293 295 299 300 305 305 301 304 303 298 291 290 290 290
308 308 308 309 309 309 309 309 309 308 309 309 308 308 307 308 310 311 309 294 283 290 291 300 298 301 297 300 299 299 299 296 301 298 295 292 291 301 305 302 299 300 298 292 285 285 291
308 308 308 308 309 309 309 309 309 308 308 308 308 306 305 307 311 312 297 285 286 291 295 294 298 296 297 300 299 299 298 297 299 300 294 293 293 303 304 305 303 300 297 302 295 296 292
308 308 308 308 308 308 308 309 309 309 308 308 303 302 301 310 313 305 290 286 290 296 296 297 291 297 294 297 296 296 296 301 299 301 304 298 294 301 303 305 304 301 305 296 297 286 286
307 307 307 307 307 307 308 308 308 308 308 307 300 293 303 310 310 296 285 287 292 297 298 294 293 293 294 296 297 295 296 299 302 301 303 301 298 298 302 299 297 299 298 301 299 296 290
305 306 306 307 307 307 307 308 308 308 307 305 297 288 303 308 290 291 286 292 295 294 298 297 297 296 295 297 297 296 295 299 303 302 298 302 300 295 297 303 304 302 300 301 295 293 296
305 305 306 306 306 306 307 307 308 308 307 301 292 292 303 304 285 285 291 291 294 293 295 296 295 298 301 299 294 299 298 304 306 301 299 302 296 292 293 299 302 298 301 301 302 300 295
305 305 306 305 305 306 307 307 307 308 307 302 292 285 294 296 297 291 289 289 289 295 295 298 296 299 299 297 301 298 298 301 306 305 303 304 300 296 291 295 299 296 298 302 301 294 296
304 304 304 304 304 305 305 306 307 307 307 301 292 289 295 286 288 292 292 291 289 289 295 297 296 295 296 294 296 297 301 299 303 303 304 305 296 299 298 299 299 298 297 298 296 298 295
303 303 303 303 304 304 304 304 305 307 307 298 286 292 296 293 292 290 291 290 290 290 292 291 293 296 297 296 297 294 299 299 298 301 301 303 296 298 296 299 298 297 299 299 298 298 298
303 303 303 303 303 303 303 303 304 305 306 296 296 299 296 291 291 288 290 292 291 294 294 296 295 297 295 297 303 304 303 304 303 302 300 299 297 295 291 297 296 290 297 298 299 301 300
303 303 303 304 303 303 303 302 303 304 304 300 298 299 294 289 291 290 291 292 292 293 293 295 297 298 301 306 306 304 303 301 301 302 303 300 298 296 291 291 285 297 303 302 300 301 302
303 303 304 304 304 303 302 302 303 303 304 300 302 299 295 290 293 292 292 293 294 296 294 295 298 301 307 302 296 293 293 294 297 299 300 302 300 292 289 290 294 297 300 300 299 298 304
303 303 303 303 303 303 302 302 303 303 304 302 301 304 301 294 291 295 293 294 292 293 293 296 300 308 306 299 291 288 286 291 290 293 300 300 303 297 294 287 285 297 303 306 305 293 304
302 302 302 303 303 303 302 302 303 303 304 300 301 306 302 294 298 297 293 293 297 295 294 296 297 300 306 295 288 289 288 294 288 289 289 293 295 292 291 290 295 302 304 305 293 296 307
302 303 303 303 303 302 302 302 303 303 303 301 301 305 303 296 297 299 300 297 297 297 293 297 296 297 298 293 292 291 291 292 290 293 294 292 292 291 293 289 287 306 304 297 303 309 311
302 303 303 302 302 302 303 303 303 304 303 303 298 305 309 301 298 304 304 305 305 302 300 299 297 298 299 296 296 297 296 297 293 286 298 291 297 295 297 296 307 306 306 309 312 312 311

GFSGBSN_sfc_thetae_069.txt.gz
Theta_e
312 312 312 312 312 312 312 314 315 315 315 314 314 312 312 314 314 315 314 315 315 316 317 319 321 320 314 307 308 317 328 324 315 310 305 304 304 302 298 299 299 298 300 302 302 301 300
313 313 313 312 312 311 311 311 313 314 314 314 313 313 313 311 312 314 314 313 313 314 315 318 320 318 311 300 314 316 317 318 312 307 306 307 305 306 302 300 298 303 302 301 302 301 302
311 313 314 313 313 313 312 312 312 313 313 313 314 313 310 312 311 311 312 312 312 313 315 316 319 318 308 304 314 314 313 311 316 313 307 309 309 305 302 299 306 304 299 300 300 301 300
311 311 312 312 313 313 312 312 312 312 312 313 313 313 312 310 309 310 311 311 311 312 314 316 318 314 302 315 314 313 313 310 313 314 313 312 311 306 302 304 303 299 297 291 299 301 302
312 311 311 312 312 311 312 312 312 312 312 312 313 312 312 312 309 309 309 311 311 312 313 315 312 308 302 317 310 313 311 309 311 310 311 314 308 303 302 296 293 295 290 292 295 302 301
309 310 311 311 311 311 311 311 312 312 311 311 312 312 312 312 311 310 309 310 310 311 311 315 314 303 308 304 310 311 312 311 307 307 307 305 300 296 295 292 287 290 294 293 292 298 301
308 309 309 310 311 311 311 311 311 311 312 312 311 312 312 312 311 310 306 302 301 302 306 304 304 302 303 309 312 308 310 307 306 303 298 301 293 292 294 296 298 297 296 293 296 302 300
308 307 308 310 311 310 310 311 310 310 310 312 311 311 311 311 312 310 304 297 301 303 296 308 309 308 309 311 304 307 309 302 300 295 301 297 293 298 300 300 299 299 295 293 299 302 298
308 309 308 309 310 311 310 311 311 310 310 310 311 310 311 311 311 305 300 300 306 304 296 301 305 305 308 309 303 303 306 302 298 295 298 295 298 302 300 298 297 297 294 294 295 299 299
308 308 309 309 310 310 311 311 310 310 310 310 310 310 310 310 302 301 298 305 307 305 291 293 297 300 303 302 300 307 307 303 298 295 298 297 302 301 299 298 299 293 300 299 299 295 288
308 308 308 309 309 309 310 310 310 311 310 310 310 310 309 310 301 300 305 309 309 308 276 293 295 307 303 297 300 300 307 303 296 296 298 296 299 298 297 299 301 297 304 301 299 294 291
308 308 308 309 309 309 310 310 310 310 310 310 309 310 309 305 302 303 306 306 305 288 277 291 301 299 298 297 298 301 300 303 302 297 298 297 302 301 300 302 302 303 301 299 297 293 285
307 307 308 308 309 309 310 310 310 310 310 309 309 310 308 305 298 304 308 302 288 279 291 288 296 299 297 295 295 297 295 294 292 289 289 295 297 301 303 298 301 299 293 285 283 282 282
307 307 308 308 309 309 309 309 309 309 309 309 308 308 307 305 304 306 304 292 281 288 287 295 296 298 294 297 295 295 293 291 296 295 291 289 287 297 302 299 296 296 294 286 281 281 286
306 307 308 308 308 309 309 309 309 309 309 309 308 305 303 304 304 305 296 283 282 287 291 290 291 290 293 296 296 294 293 292 296 298 290 289 290 301 301 302 300 297 292 298 292 292 287
307 307 307 307 307 308 308 308 308 309 309 308 303 300 299 305 304 300 290 284 286 292 294 293 286 291 291 294 293 293 293 297 296 300 301 295 290 298 300 302 301 298 301 292 295 283 283
306 306 307 307 307 307 307 308 308 309 309 308 301 293 300 305 304 293 282 285 289 294 295 291 289 289 290 289 295 293 293 297 299 298 300 297 294 294 298 296 296 295 294 297 297 292 284
305 305 305 306 306 306 307 307 308 308 308 306 298 287 301 304 288 289 284 288 292 291 295 292 293 291 291 291 290 294 293 296 301 300 295 298 296 290 292 299 302 299 296 297 289 289 291
304 305 305 305 306 306 306 306 307 307 308 303 293 292 301 300 283 283 289 288 290 290 291 291 290 293 294 291 288 296 297 301 302 298 296 298 293 287 289 296 299 295 297 298 299 296 290
305 305 305 305 306 306 306 306 306 307 308 303 291 284 292 295 292 286 285 286 287 292 292 293 291 292 292 291 294 295 296 301 301 301 302 301 295 291 286 291 296 293 296 297 296 287 289
304 305 305 305 305 305 306 306 306 307 307 303 290 287 290 285 287 288 288 288 285 286 291 293 290 290 290 288 291 293 298 300 300 302 300 298 291 293 294 297 298 297 295 295 295 296 290
303 303 303 303 304 304 305 305 305 306 307 300 285 288 291 288 291 288 288 287 287 288 290 288 287 290 292 290 292 292 296 297 295 299 297 298 291 294 292 297 297 295 297 296 296 295 294
302 302 302 302 303 303 304 304 305 305 306 299 294 295 292 289 288 286 286 287 288 291 291 293 291 290 289 292 300 301 301 300 299 297 294 295 293 292 287 294 294 287 294 295 297 297 295
303 302 302 303 303 303 303 303 304 304 304 297 294 295 290 285 287 287 289 289 289 291 289 293 293 290 294 305 305 303 301 300 299 299 300 296 294 292 287 288 282 293 300 300 297 298 298
303 303 303 303 303 303 303 303 303 303 304 300 297 296 292 285 288 289 289 289 290 292 292 292 294 295 297 302 294 291 291 292 293 298 299 298 296 287 286 286 291 295 297 297 296 294 298
302 303 303 303 303 303 302 303 303 303 304 301 297 299 296 289 288 292 290 291 287 287 289 292 297 297 297 293 290 284 283 288 289 292 298 297 297 291 286 283 282 292 300 303 301 288 300
302 302 302 303 303 303 303 303 303 302 303 300 296 300 297 291 294 295 290 290 293 291 288 291 292 293 298 286 285 282 282 292 285 285 286 286 287 285 284 285 289 299 301 303 289 289 302
302 302 302 302 303 303 303 303 303 302 303 300 297 301 298 294 295 299 298 294 294 293 288 291 291 291 289 287 286 284 280 289 287 292 289 287 286 285 286 285 284 302 300 294 297 301 303
302 302 303 302 302 302 302 303 303 302 303 302 294 302 305 298 296 302 301 302 300 299 296 294 291 293 293 290 291 289 284 283 287 280 296 287 293 290 292 289 300 303 302 304 306 304 304

GFSGBSN_sfc_thetae_072.txt.gz
Theta_e
313 313 312 312 313 312 311 311 313 313 314 313 314 314 314 314 313 312 313 313 313 313 313 314 316 318 314 306 306 314 327 324 314 308 303 301 301 300 296 297 297 295 297 300 300 300 298
312 313 313 313 313 313 312 312 312 312 313 313 313 313 313 312 311 311 311 312 312 313 313 313 315 319 310 297 309 314 319 315 310 305 304 303 302 304 300 298 295 299 299 300 301 299 299
311 312 313 313 312 313 313 313 312 312 312 313 313 313 313 313 310 310 311 311 312 312 312 312 313 314 306 301 310 310 311 308 312 308 304 306 306 302 301 298 302 301 297 298 299 299 299
310 310 311 312 312 312 312 312 313 313 312 312 312 313 312 311 312 310 310 310 310 311 312 313 313 311 300 313 312 311 311 310 312 310 310 309 308 304 300 301 299 297 295 290 296 298 301
310 310 310 311 311 311 311 311 311 312 313 312 312 312 312 312 311 311 310 310 310 311 312 313 308 306 298 315 310 313 312 306 308 310 309 313 308 302 300 293 290 292 287 290 294 302 298
309 309 310 310 311 311 311 311 311 311 312 312 312 311 312 312 311 310 310 310 309 310 308 309 311 302 304 301 308 309 309 309 306 305 304 304 299 295 293 290 284 287 289 289 291 297 294
308 308 308 308 309 309 310 311 311 311 311 311 312 312 311 312 311 310 306 300 296 300 303 301 302 301 301 307 311 307 309 307 304 300 295 299 293 291 293 294 295 294 292 291 295 300 299
307 307 307 307 308 309 310 311 311 311 311 311 310 311 311 311 311 311 302 296 297 298 290 300 303 306 309 310 303 307 307 300 298 293 298 296 292 298 298 297 295 294 292 292 296 300 297
307 306 306 307 308 309 309 310 311 310 311 311 311 311 311 310 310 304 300 299 305 302 290 296 302 303 305 308 303 303 304 300 297 294 295 293 297 301 298 295 294 294 292 293 293 296 296
307 307 307 307 308 308 309 310 310 310 310 310 311 310 310 309 301 301 298 305 307 305 285 289 297 298 303 304 299 306 304 301 297 294 294 294 300 299 296 295 296 291 298 297 295 293 287
306 306 307 308 308 309 308 309 310 310 310 310 310 310 310 308 297 297 303 306 307 301 270 289 294 306 303 297 297 301 306 301 294 294 294 293 296 296 295 296 300 295 300 299 297 293 289
306 306 307 307 307 308 308 309 309 310 310 310 310 310 309 306 300 299 305 304 305 287 274 288 296 295 295 297 296 298 300 302 301 295 295 294 300 299 298 301 300 302 298 297 294 291 284
305 305 306 307 307 308 308 309 309 309 310 310 310 310 308 306 294 301 303 301 286 278 289 286 293 297 293 292 293 294 293 293 291 287 288 292 293 298 299 295 299 298 291 284 283 282 282
305 305 306 306 307 307 308 309 309 309 309 309 309 308 308 307 303 300 303 292 279 285 285 292 291 291 292 293 291 292 291 288 293 292 288 286 284 294 299 296 295 294 293 286 281 280 284
304 305 305 306 306 307 308 308 309 309 309 309 309 305 303 305 303 302 293 280 281 285 291 289 289 286 287 294 293 291 290 289 292 294 288 286 287 297 299 300 299 294 290 296 290 290 284
304 305 305 305 306 307 307 308 308 309 309 309 303 301 300 305 304 298 288 283 285 290 291 291 285 289 285 289 289 289 289 294 293 296 297 292 287 295 297 301 300 297 299 291 292 283 281
304 304 305 305 306 306 307 307 308 308 308 309 302 294 301 304 303 291 281 284 288 292 292 289 286 287 287 287 289 289 291 295 296 296 298 296 291 291 297 295 293 294 293 295 296 291 283
303 304 304 305 305 306 306 307 307 308 308 305 299 287 301 303 288 288 282 287 292 290 293 290 292 289 288 289 288 289 289 294 299 298 293 297 292 287 290 298 300 296 295 294 288 288 291
303 304 304 304 305 305 305 306 306 307 308 302 293 291 301 298 283 283 287 286 289 289 289 289 289 291 292 289 285 292 292 300 301 297 294 295 290 285 287 294 297 294 296 296 297 294 289
303 303 304 304 305 305 305 306 306 306 307 302 289 284 291 293 291 287 285 284 285 291 289 290 290 291 288 287 290 290 292 300 302 301 301 299 292 289 284 288 294 291 295 296 295 287 289
304 304 304 305 305 305 306 306 306 306 307 302 288 285 289 285 286 288 287 286 284 285 290 291 287 288 288 285 287 289 296 297 301 301 300 297 289 291 292 295 295 294 294 295 293 293 290
303 303 303 303 304 304 305 305 305 306 306 299 284 287 290 289 290 287 287 284 285 286 288 286 286 289 290 286 287 286 294 295 296 298 296 297 289 292 289 294 295 292 295 296 296 294 295
303 303 302 302 302 303 303 304 304 305 305 297 296 294 292 289 288 285 284 286 286 289 289 290 289 287 286 289 293 298 299 299 299 295 294 293 291 288 284 293 292 287 292 295 295 296 295
302 302 302 303 303 303 303 303 303 304 304 300 296 296 290 285 286 286 288 288 287 289 287 291 291 289 292 301 301 301 300 299 299 298 299 294 291 289 282 287 281 291 299 299 297 298 298
302 302 303 303 303 303 303 303 303 303 304 300 296 296 291 285 287 288 288 288 289 290 290 289 292 294 294 295 291 288 287 288 291 296 296 297 294 285 283 284 289 292 296 297 295 294 299
302 303 303 303 302 303 303 302 303 303 304 301 296 299 295 288 286 290 288 289 286 286 287 289 295 296 293 291 287 282 280 286 287 290 297 297 295 289 283 281 278 289 298 302 300 289 300
302 303 303 303 303 302 303 302 303 303 303 301 296 299 294 288 291 292 288 288 291 289 286 288 290 290 293 284 280 279 281 290 283 284 287 285 286 283 281 281 286 296 300 302 289 289 300
302 303 303 303 303 302 303 302 302 302 303 301 297 299 294 287 294 295 296 291 292 291 285 288 289 288 287 282 282 281 279 285 286 290 289 288 285 284 283 280 281 300 299 293 296 300 301
302 302 302 302 302 302 302 302 302 303 303 302 295 299 300 294 294 299 298 300 298 297 293 291 289 289 290 286 286 285 280 280 284 282 294 286 289 287 288 287 297 302 302 303 303 301 302

GFSGBSN_sfc_thetae_075.txt.gz
Theta_e
312 312 313 313 313 313 313 312 313 312 313 313 313 313 313 314 313 312 312 312 312 313 312 312 313 314 313 302 304 312 326 323 313 306 301 300 299 299 295 295 295 293 296 297 298 298 298
312 312 311 312 311 311 312 313 313 312 312 312 313 313 313 313 313 312 311 312 312 312 312 312 312 313 309 294 307 310 310 314 308 303 301 300 299 301 298 297 294 297 297 298 299 299 298
310 310 311 312 312 311 311 312 312 313 313 312 312 312 313 312 312 312 312 311 311 311 312 311 312 310 303 298 306 308 309 306 306 306 301 303 303 300 300 297 301 298 295 296 297 297 297
310 310 310 311 311 311 312 312 312 311 312 313 313 312 312 312 312 311 311 311 311 311 311 312 311 308 297 310 310 309 308 308 311 309 306 307 306 302 299 300 298 293 293 288 293 296 298
309 310 309 311 311 311 311 311 311 310 311 312 313 312 311 311 311 311 310 310 310 312 312 311 305 303 296 312 308 312 311 306 307 308 307 311 305 300 299 292 289 289 284 288 292 297 296
309 309 309 309 310 310 310 310 311 311 311 311 311 312 312 311 311 310 310 310 310 309 308 308 309 298 300 298 305 309 310 308 302 304 303 301 299 294 292 289 284 285 287 287 289 294 295
308 308 308 308 308 308 308 309 311 311 311 311 311 311 312 311 310 310 307 301 293 296 297 296 299 298 300 306 311 306 307 304 303 300 294 298 292 290 293 293 293 292 290 288 292 297 294
307 308 308 306 307 307 307 308 310 311 311 311 311 311 311 311 310 310 303 296 297 298 290 298 297 298 304 307 301 303 308 299 297 292 295 294 290 297 296 295 294 292 289 289 293 297 294
306 307 306 306 306 306 307 308 310 310 310 311 311 311 310 310 309 304 299 299 305 304 292 294 297 295 296 302 299 300 304 299 295 292 293 291 294 299 297 294 292 292 290 290 291 294 294
305 306 305 305 305 306 307 308 309 310 310 310 310 310 310 309 300 300 297 305 305 305 282 285 292 296 300 302 296 304 304 299 296 293 293 292 297 296 294 293 293 288 295 295 293 290 285
305 304 305 304 304 307 308 308 308 309 310 310 309 310 309 308 295 296 301 302 302 298 270 287 293 303 302 295 295 299 303 299 293 293 293 290 293 293 292 294 296 292 297 295 294 290 288
305 304 304 304 305 306 307 307 308 308 309 310 309 309 309 306 299 298 303 302 303 283 272 284 293 294 294 297 295 298 298 299 298 294 293 292 297 297 295 298 298 300 296 294 292 289 283
304 304 304 304 305 306 307 307 308 308 309 309 309 309 307 306 295 300 300 298 284 277 288 284 289 291 291 291 293 292 293 291 289 286 287 290 292 295 298 294 297 295 290 283 281 281 281
303 304 304 304 305 305 306 306 307 307 308 308 308 308 307 306 301 299 297 288 277 283 283 290 289 289 286 291 290 290 290 287 291 290 286 285 283 292 296 295 291 292 291 283 280 279 282
303 304 304 304 305 305 306 306 307 307 308 308 308 305 304 305 303 302 291 280 280 284 289 288 289 285 284 290 290 289 287 286 290 291 286 285 285 294 296 297 297 291 288 295 288 287 283
302 303 304 304 304 305 305 306 306 307 307 308 302 301 301 306 304 298 286 280 284 290 290 289 284 287 283 286 288 287 287 291 290 293 294 291 284 293 295 297 297 295 298 289 288 281 280
303 303 303 304 304 304 305 305 306 307 307 308 301 293 302 306 303 292 280 282 286 290 291 287 285 285 286 286 289 287 288 292 293 293 294 292 289 288 294 292 290 292 291 293 293 288 281
302 302 303 303 304 304 305 305 306 307 307 305 298 287 302 303 286 287 283 284 290 289 292 289 289 288 286 287 286 288 287 291 295 298 291 293 290 286 289 295 297 295 292 295 286 286 287
302 303 303 303 303 304 304 305 305 306 307 302 292 291 302 299 283 283 287 287 287 287 288 288 288 289 290 286 283 288 291 296 299 298 292 294 288 282 286 291 295 292 293 294 294 293 286
302 302 302 303 303 304 304 305 305 306 307 302 287 283 291 294 291 286 285 284 283 289 288 290 288 289 287 285 288 286 289 296 301 299 301 299 290 288 284 286 292 290 293 295 293 286 287
302 303 303 303 304 304 304 305 305 305 306 302 287 285 289 283 286 288 288 287 284 283 288 288 285 286 285 282 285 285 290 293 296 300 298 296 288 289 291 293 295 294 293 294 290 292 289
303 303 303 303 304 304 305 305 305 305 306 297 284 287 291 287 290 287 287 285 285 286 287 284 285 288 287 283 284 284 289 292 293 298 296 297 289 291 288 292 294 292 294 293 292 293 292
302 302 302 303 303 303 304 304 304 305 304 295 295 294 293 289 288 285 284 286 286 288 288 289 288 287 285 287 290 292 293 296 298 296 294 293 289 287 284 291 292 285 290 293 293 294 294
302 302 302 302 302 303 303 303 303 304 304 300 297 295 289 284 287 286 288 288 287 287 286 290 289 287 290 294 294 292 291 294 297 297 299 292 291 286 283 287 279 290 297 297 295 296 298
302 302 302 302 302 302 302 302 303 303 304 298 299 295 291 285 288 288 288 287 288 289 288 289 291 293 294 291 285 283 284 286 290 294 295 297 293 286 282 282 287 290 295 295 293 293 299
302 302 302 302 302 302 302 302 303 303 303 300 299 300 295 288 287 290 288 289 285 285 286 289 295 295 293 286 283 278 277 283 284 288 295 295 295 289 285 280 276 288 296 300 299 287 299
302 302 302 303 303 303 302 302 303 303 303 300 298 300 294 287 291 292 288 287 290 287 284 288 289 289 292 283 280 279 279 288 282 282 284 285 284 284 284 283 286 294 298 301 288 288 300
302 302 302 303 302 303 303 302 302 303 303 300 297 300 292 288 289 294 295 290 290 290 284 288 289 287 286 281 282 280 277 283 283 287 286 285 283 279 283 281 281 298 298 292 296 299 302
302 302 302 302 302 303 303 303 303 303 303 302 294 299 300 293 293 298 298 298 297 295 292 291 289 289 289 284 284 282 279 278 283 279 290 284 288 285 289 286 296 300 300 302 303 301 301

GFSGBSN_sfc_thetae_078.txt.gz
Theta_e
311 311 312 312 312 312 312 313 313 313 312 312 312 311 311 311 312 313 313 312 312 312 312 311 311 312 309 299 299 309 321 322 311 305 300 299 297 296 294 294 294 291 294 296 296 296 296
311 310 311 311 311 311 311 311 311 312 312 312 312 312 312 311 311 311 312 312 311 312 312 311 311 312 305 292 302 308 308 310 306 301 300 299 298 300 297 295 294 296 294 295 296 297 297
310 310 310 311 310 311 310 311 310 311 311 312 312 312 312 311 311 310 311 311 311 311 311 311 311 308 301 295 304 305 307 304 304 303 299 300 300 299 298 295 299 297 293 294 294 295 295
309 309 310 311 311 311 311 311 310 310 311 311 310 312 312 311 311 311 311 310 310 311 311 311 311 306 295 308 308 307 305 306 307 306 304 305 304 300 298 299 297 292 291 286 290 294 295
310 309 309 309 310 310 310 310 310 310 310 311 311 311 311 311 311 310 310 310 310 311 311 311 304 301 293 309 305 309 309 305 306 307 305 309 303 298 297 292 288 288 284 285 289 295 294
310 308 309 309 309 309 309 309 310 310 311 311 311 312 311 311 311 310 309 309 309 308 307 307 307 295 297 294 304 308 309 308 302 302 301 300 298 293 292 289 284 285 285 285 287 290 292
309 309 308 308 308 308 308 308 309 309 310 311 312 312 311 311 311 310 306 299 293 291 295 294 296 296 298 305 310 306 306 304 302 298 293 295 290 288 292 293 292 290 288 287 289 293 292
308 308 307 306 307 307 307 307 308 309 310 311 311 311 311 310 310 310 302 296 297 297 289 297 296 296 300 303 296 300 306 298 296 291 294 291 289 295 296 295 293 291 288 288 291 294 293
306 306 306 307 306 306 306 306 308 309 309 310 310 311 310 310 309 302 298 297 304 303 291 293 297 295 296 298 293 294 300 298 295 291 292 290 292 297 295 292 291 291 289 289 288 291 292
306 306 306 306 305 305 305 305 306 308 309 309 310 310 310 309 299 298 295 303 302 302 284 285 290 294 297 298 292 300 301 297 294 291 292 291 296 294 293 292 293 287 293 293 291 288 283
305 305 305 304 304 305 305 305 306 307 308 309 309 310 309 308 295 295 301 303 302 297 271 286 291 302 300 291 293 297 303 297 289 292 292 289 291 292 291 292 294 291 294 292 291 288 285
305 305 304 304 304 304 304 305 306 306 307 308 309 309 309 305 299 299 301 302 302 283 272 283 292 293 294 295 295 297 297 299 296 293 291 291 295 294 293 296 296 298 293 292 291 288 281
304 304 304 304 304 304 303 304 305 306 307 308 308 308 307 306 294 301 300 299 284 276 286 284 286 289 288 290 292 292 292 290 287 284 285 289 290 292 297 291 295 293 288 281 280 280 281
303 303 303 303 303 304 304 304 305 305 306 307 307 307 307 306 301 300 296 289 277 283 283 288 288 289 285 289 289 290 289 286 290 288 283 283 281 290 295 294 291 291 289 282 279 279 282
302 302 302 302 303 304 304 304 305 305 306 307 307 303 303 305 302 300 290 278 279 283 287 286 288 284 283 288 289 289 286 286 288 290 285 284 283 292 294 295 296 290 288 292 286 285 282
302 302 302 303 303 303 304 304 305 305 305 306 300 299 300 307 305 299 286 279 282 288 289 288 282 286 282 284 286 287 286 290 289 291 293 289 283 291 293 295 295 293 295 287 286 281 279
301 301 302 303 303 303 303 304 304 305 305 306 299 293 301 306 304 292 281 280 283 288 288 286 284 284 285 284 285 286 286 290 292 294 294 290 287 287 291 289 288 289 290 291 291 287 281
301 302 302 302 303 303 303 304 304 304 305 303 296 286 302 304 289 286 283 285 289 287 290 287 288 286 285 285 284 286 286 291 295 296 291 292 287 283 287 293 294 293 290 292 285 284 284
302 302 302 302 303 303 303 303 304 304 305 299 292 291 302 300 283 283 287 287 287 286 287 287 286 288 288 284 282 286 288 296 298 297 293 296 287 280 284 289 292 290 291 293 294 290 285
302 302 302 302 302 303 303 303 303 304 305 300 287 283 291 295 292 287 285 284 284 288 286 289 288 288 286 284 286 284 286 291 296 296 300 298 292 285 281 284 288 287 291 292 293 284 285
302 302 302 302 302 303 303 303 304 304 304 300 288 284 288 282 286 287 287 286 284 283 287 288 285 286 284 281 282 282 286 288 294 298 298 295 286 288 289 290 290 291 291 292 290 289 286
302 302 302 302 303 303 303 304 304 304 304 296 284 286 291 286 289 287 287 285 285 285 286 284 283 286 286 282 283 282 286 287 287 296 295 296 287 288 286 290 290 288 291 291 291 291 290
303 302 302 303 303 303 303 303 304 304 304 295 293 293 292 288 286 286 285 286 286 288 288 289 287 286 284 286 288 289 289 289 289 287 291 292 287 285 282 289 289 284 289 290 291 293 292
302 302 302 302 302 302 303 303 303 304 304 298 295 294 289 284 286 286 288 288 287 288 286 289 290 287 290 293 293 291 289 289 290 289 291 290 288 286 282 284 277 288 295 296 293 294 295
302 302 302 302 302 302 302 302 303 303 302 299 299 294 290 284 288 287 288 287 289 290 288 288 291 292 294 289 285 282 281 284 287 290 292 294 291 284 283 282 285 288 293 294 292 291 296
301 301 302 302 302 302 302 302 302 302 302 299 296 299 295 287 286 291 288 289 285 285 287 289 294 295 293 287 284 279 277 281 283 288 293 292 293 288 284 281 278 287 294 299 297 286 298
301 302 302 302 302 302 302 302 302 302 303 299 296 297 293 287 291 292 288 288 290 288 285 287 289 289 292 284 281 280 279 285 281 283 284 287 286 286 284 282 286 294 296 299 286 288 299
302 302 302 302 302 302 302 302 302 302 303 300 296 298 293 288 292 295 294 290 289 289 284 288 288 286 285 282 282 281 277 282 282 285 285 284 282 282 285 282 281 297 298 292 294 298 300
302 302 303 302 302 302 302 302 303 303 303 302 294 300 299 293 292 298 298 298 296 295 291 291 289 287 287 283 282 281 278 276 282 278 288 282 286 284 286 286 294 297 299 301 302 300 300

GFSGBSN_sfc_thetae_081.txt.gz
Theta_e
311 311 311 311 311 311 311 311 312 312 312 312 312 311 311 312 311 311 312 312 312 311 311 312 312 312 309 298 296 309 318 323 317 310 304 303 302 301 299 299 298 296 298 300 300 299 299
310 310 310 311 310 309 310 311 311 311 312 312 312 312 312 311 312 311 311 311 311 310 310 310 312 311 305 290 302 310 308 309 309 305 303 302 302 303 300 300 298 300 299 299 300 301 301
309 310 310 311 312 310 309 311 310 310 311 311 311 311 312 311 311 311 311 311 311 311 310 310 310 307 299 294 304 306 306 306 307 306 302 303 303 303 302 299 302 300 297 299 300 301 300
310 310 309 311 310 310 310 310 309 310 310 310 311 311 311 311 311 311 311 311 311 311 311 310 310 305 293 307 310 307 308 306 307 306 304 306 307 303 301 303 300 297 296 293 297 298 300
311 311 310 309 310 310 309 309 309 309 309 310 311 311 311 311 311 311 311 310 310 310 311 310 304 300 292 308 304 308 307 304 307 306 305 308 306 302 301 296 293 294 290 291 293 298 299
309 309 309 309 309 308 309 309 309 309 309 310 311 311 311 311 311 310 310 309 308 308 308 308 305 294 297 293 304 308 310 309 304 304 302 301 302 298 298 294 287 290 290 291 292 296 297
307 308 309 309 308 308 308 308 308 308 308 309 311 311 311 311 311 310 305 300 296 294 297 294 294 294 297 304 307 307 310 306 304 300 294 299 295 292 295 297 295 294 292 291 294 297 296
307 307 307 308 307 307 307 307 307 307 308 309 310 310 311 311 310 310 302 295 297 298 290 297 295 296 301 302 294 300 306 299 298 293 296 294 292 296 297 297 296 294 292 292 295 297 296
305 305 307 307 306 306 306 306 306 306 307 309 309 310 310 310 309 302 299 297 303 301 291 293 297 295 296 298 293 294 300 301 296 293 294 291 294 298 296 294 293 294 293 293 292 294 297
306 306 305 306 305 306 305 305 305 305 307 308 308 309 309 309 302 299 296 303 303 302 285 286 290 294 296 298 291 299 299 298 296 293 294 293 297 295 294 293 295 290 296 295 293 292 287
305 306 306 305 305 305 305 305 304 305 305 307 307 308 309 308 297 296 301 304 304 300 273 287 292 301 298 292 293 297 301 297 289 293 294 292 293 292 292 293 296 292 297 295 295 292 290
304 304 304 305 304 305 305 304 304 304 304 305 307 308 307 306 301 301 302 303 303 284 273 284 294 294 292 294 294 299 297 300 297 291 293 293 297 296 295 297 297 298 295 294 293 291 285
303 303 303 304 304 304 304 304 304 303 305 305 306 307 306 306 298 303 303 299 283 277 287 284 286 290 289 291 292 294 292 290 288 284 284 290 292 296 298 293 297 296 292 285 284 284 283
303 303 303 303 303 303 303 303 304 304 304 305 306 306 304 306 302 302 299 288 277 283 283 289 289 289 286 290 291 291 290 288 292 290 285 284 282 292 297 295 292 293 292 286 280 282 286
300 302 302 302 302 303 303 303 304 304 304 305 305 301 301 304 304 302 292 278 280 284 287 287 288 285 285 289 290 291 289 288 291 292 285 284 284 293 295 298 297 292 289 295 288 289 287
301 301 302 303 303 302 302 303 303 303 304 305 299 297 297 305 305 298 287 281 283 288 289 289 282 287 283 285 287 288 288 292 291 295 294 291 285 293 294 296 298 296 297 288 290 281 281
300 301 301 301 302 302 302 302 303 303 304 304 297 291 299 306 303 292 281 283 284 288 288 286 285 284 285 285 286 287 288 292 294 295 296 292 290 290 293 291 290 291 291 293 293 290 284
300 300 300 301 302 302 302 302 303 303 304 301 294 285 301 304 288 286 284 286 289 287 290 287 288 287 285 286 285 286 287 290 298 297 292 295 290 285 288 295 296 295 292 293 289 287 289
300 301 301 301 302 302 302 303 303 303 304 297 289 289 301 300 282 283 288 287 288 286 287 287 286 288 289 285 282 286 289 295 297 295 291 293 290 283 285 290 293 291 294 294 294 293 290
301 301 301 302 302 302 302 303 303 303 304 298 289 283 290 294 291 287 284 285 285 290 287 288 288 289 287 285 288 285 286 291 293 292 299 296 289 287 283 286 290 289 292 294 294 288 289
301 302 302 302 302 302 302 303 303 303 303 298 289 284 289 283 285 287 288 287 284 283 288 288 285 286 285 282 283 284 287 288 291 295 298 295 285 288 290 291 292 291 291 293 292 293 290
302 302 302 302 302 302 302 302 302 303 303 295 284 286 289 287 289 287 287 285 285 286 285 284 284 286 287 283 285 283 286 287 286 290 289 293 286 288 286 291 292 289 292 292 293 293 293
302 302 302 302 302 302 302 302 303 303 302 293 294 293 292 288 287 286 285 286 286 288 289 289 287 286 284 287 290 291 291 290 289 287 286 287 287 286 283 289 288 285 290 292 293 295 295
302 302 302 302 302 302 302 302 301 302 302 298 294 294 289 284 285 286 288 288 288 288 287 289 290 287 290 295 294 293 291 290 290 289 290 287 287 287 283 286 280 291 296 296 294 296 298
302 301 301 302 302 302 302 302 302 301 301 299 297 294 289 284 287 287 288 288 289 291 289 289 291 293 296 291 285 282 283 284 287 288 289 290 287 284 282 283 285 291 295 295 294 294 299
301 302 302 302 302 301 302 302 302 302 301 297 297 299 294 287 285 290 288 290 286 287 287 289 295 297 294 288 285 279 278 282 283 286 291 289 289 287 285 281 278 289 296 300 300 290 299
301 302 302 302 302 301 302 302 302 302 302 297 295 297 291 287 291 292 288 288 291 289 286 289 290 290 293 286 281 279 279 285 280 282 284 285 287 283 284 283 288 295 298 301 288 292 301
301 302 302 302 302 302 302 302 302 302 302 299 295 298 291 287 290 295 295 291 291 290 285 289 288 288 287 283 283 283 282 285 283 285 287 286 284 284 285 283 281 298 299 293 299 302 303
301 302 302 302 302 302 302 302 302 302 302 301 294 298 298 291 291 298 297 298 297 296 292 292 290 288 289 286 286 287 283 283 285 280 289 283 289 287 289 289 297 299 301 304 304 303 305

GFSGBSN_sfc_thetae_084.txt.gz
Theta_e
312 310 311 311 311 311 310 311 312 312 311 311 311 311 311 311 311 312 313 312 312 311 311 311 311 312 310 301 299 310 321 322 322 316 310 309 307 305 301 303 304 302 303 305 306 306 306
311 310 311 311 311 310 309 310 311 311 311 310 310 311 311 311 311 310 312 312 311 311 311 311 310 311 305 295 305 310 312 314 313 315 313 309 307 309 305 304 303 305 305 305 306 306 305
311 310 311 311 311 310 310 310 310 310 311 311 311 311 312 311 311 311 311 311 311 311 311 311 311 308 301 299 306 311 309 310 313 311 307 310 310 305 306 303 307 305 301 304 305 305 304
310 311 311 311 311 310 310 310 309 309 309 309 310 311 311 312 312 312 311 311 311 311 311 311 311 307 297 307 311 307 308 306 307 309 307 310 310 307 305 307 304 300 302 297 303 303 303
308 310 310 311 311 310 310 309 310 308 308 309 309 311 311 311 311 311 311 311 310 311 311 310 307 304 295 308 304 308 307 302 306 306 305 306 308 304 304 299 297 299 294 298 300 304 303
309 309 307 309 310 309 309 309 310 309 308 308 309 310 311 311 311 311 310 310 309 308 310 309 307 298 301 296 305 310 313 312 307 305 300 300 303 300 300 297 289 293 296 298 298 302 301
306 307 307 307 308 309 307 307 309 308 308 308 308 310 311 311 311 310 309 306 301 300 302 298 298 297 298 305 308 307 313 311 307 302 293 298 296 293 297 298 299 299 297 297 301 301 299
306 307 307 306 307 308 307 306 307 307 307 306 307 309 310 310 310 310 308 299 299 300 292 300 299 299 302 304 296 301 311 303 302 297 297 296 293 298 299 300 299 298 296 296 300 301 299
305 305 305 305 305 307 306 305 307 306 306 306 307 308 309 310 310 308 304 300 307 306 292 296 300 298 299 300 295 296 304 303 299 296 295 293 296 299 299 298 296 297 296 296 296 300 301
304 304 306 306 306 306 306 305 305 305 305 306 307 307 308 308 304 306 303 306 308 306 288 291 293 298 299 299 293 300 301 302 300 295 296 295 298 297 296 295 297 293 299 298 296 295 292
304 304 304 304 305 305 305 305 304 304 304 305 306 306 307 307 306 301 304 307 306 304 278 289 294 304 300 295 295 298 301 297 293 296 296 294 295 294 294 296 298 295 300 297 297 296 296
303 303 303 303 304 305 305 305 304 304 303 304 305 305 306 306 307 306 309 309 304 286 277 287 296 295 293 294 295 300 297 299 297 290 293 295 300 298 296 298 299 300 298 298 297 296 289
302 302 303 303 303 304 304 304 303 303 303 304 305 305 305 308 300 309 310 302 287 280 289 287 290 293 291 292 295 295 293 291 290 285 284 288 292 297 299 295 299 298 295 289 288 288 287
300 301 301 302 304 304 303 303 304 303 304 304 305 305 305 307 310 306 305 292 279 285 286 291 291 291 288 292 294 294 293 290 294 292 289 284 283 289 294 294 293 295 295 291 284 286 290
300 300 301 301 302 303 303 303 303 303 304 304 304 303 302 306 308 307 292 282 282 286 289 289 290 287 288 291 293 293 292 292 294 294 288 287 286 295 296 297 296 295 292 299 292 293 289
300 300 301 301 302 302 303 303 302 302 303 304 299 298 299 307 310 300 288 282 287 291 291 291 285 288 285 288 288 290 292 294 293 298 300 292 287 294 295 298 298 296 299 291 292 284 283
299 300 301 301 301 302 301 301 301 301 302 303 298 290 300 307 307 292 283 284 288 292 291 289 287 286 287 287 288 288 289 293 296 296 300 296 292 292 296 293 291 293 293 294 295 292 287
300 300 300 300 300 301 300 301 301 302 303 300 294 285 302 307 287 287 285 288 291 290 292 290 290 289 288 288 287 287 287 291 297 297 292 297 294 288 290 297 298 297 295 295 290 289 293
299 300 300 300 301 301 302 302 302 302 303 300 289 289 302 301 283 284 288 289 291 289 289 289 288 290 291 288 285 288 290 295 296 295 293 295 291 287 288 293 296 293 295 296 296 295 291
300 301 301 301 301 302 302 303 303 303 303 300 290 284 292 294 292 289 287 285 287 292 290 291 290 291 290 288 291 287 288 292 296 295 298 296 290 288 285 289 294 291 294 295 295 291 290
301 301 301 301 302 302 302 302 303 303 303 298 289 285 291 284 286 286 289 288 285 286 290 291 288 289 288 285 287 287 290 292 294 296 296 295 287 289 290 292 292 292 293 294 293 295 292
302 301 302 302 302 302 302 302 303 302 303 294 285 286 292 289 290 287 287 286 286 288 289 287 287 289 290 287 288 286 289 290 289 292 291 293 288 290 288 292 293 291 293 295 295 295 296
301 302 302 302 302 302 302 303 303 302 302 293 293 295 292 289 289 286 286 289 289 291 291 292 291 289 288 290 293 294 294 293 293 290 290 289 288 285 284 291 291 287 293 295 296 298 297
302 302 302 302 302 302 302 302 301 302 302 297 295 294 288 284 287 287 288 289 289 290 289 292 293 290 292 297 297 296 294 293 293 293 294 288 288 288 284 287 280 292 297 299 297 298 300
302 302 302 302 302 302 302 302 302 302 301 298 298 295 290 285 288 289 289 289 291 293 290 291 294 295 298 292 288 286 287 287 289 292 292 293 289 285 282 285 289 289 291 294 296 296 301
301 302 302 302 302 302 302 302 302 302 301 298 298 300 295 290 288 292 290 290 288 289 289 291 295 298 295 289 287 281 281 284 284 288 294 292 292 288 285 282 280 289 295 300 300 293 303
301 301 302 302 302 302 302 302 302 302 302 299 294 299 294 288 293 293 289 290 293 291 289 290 291 290 294 287 284 283 282 287 282 283 283 286 286 283 284 282 288 297 299 301 288 291 303
300 301 301 302 302 302 302 302 302 302 302 299 295 299 292 289 294 296 296 293 293 293 288 292 289 288 287 285 286 285 284 286 285 288 288 285 284 284 284 284 282 300 299 292 297 305 305
301 301 302 302 302 302 302 302 302 302 302 301 294 300 298 291 292 298 298 301 300 299 295 294 291 291 292 289 289 290 286 289 287 283 291 285 291 288 291 290 298 298 299 303 303 302 303

GFSGBSN_sfc_thetae_087.txt.gz
Theta_e
311 312 312 312 311 311 311 310 312 312 311 311 311 311 310 311 311 311 312 312 311 311 311 312 312 312 310 303 304 312 318 323 321 319 313 310 309 308 305 306 307 305 306 307 308 308 307
312 312 311 311 311 310 310 311 310 311 311 311 311 311 311 311 311 311 312 312 312 311 311 311 312 311 305 297 309 309 310 311 312 316 313 312 310 311 307 306 305 307 306 306 308 308 308
310 311 312 312 312 310 309 309 309 310 310 310 311 311 311 311 311 312 312 312 312 312 311 311 311 310 302 300 310 311 311 309 313 312 311 315 314 309 309 305 309 307 303 305 306 307 306
311 310 310 312 312 312 311 309 309 309 309 309 309 310 311 311 312 312 312 312 311 312 311 311 311 310 299 309 311 309 310 307 311 314 312 314 314 310 308 309 306 302 303 298 305 308 308
309 310 310 310 310 311 311 311 309 309 308 309 308 309 310 311 311 311 311 311 311 312 311 311 309 306 298 309 304 308 308 304 305 307 308 307 307 306 307 301 299 301 295 298 301 309 306
307 308 308 309 309 309 310 309 309 309 308 308 308 309 310 311 311 310 310 310 311 309 310 312 309 301 304 298 304 310 316 306 303 305 302 300 299 298 298 298 292 294 295 298 299 306 307
307 307 306 307 308 308 308 309 309 309 307 307 307 307 309 310 310 310 309 309 303 304 306 301 301 301 301 305 308 304 314 312 311 307 296 298 293 293 297 298 299 299 298 298 303 307 303
306 306 307 307 307 307 307 308 308 308 306 306 306 307 308 309 309 310 310 303 302 302 295 302 301 301 304 305 298 302 310 304 304 299 302 297 291 298 301 299 298 298 297 297 301 305 303
306 306 305 305 306 306 306 307 307 307 306 306 305 306 307 308 309 308 307 303 309 308 296 297 302 301 302 303 298 299 304 305 302 299 298 296 298 300 298 296 295 296 296 297 297 302 304
304 304 304 304 306 306 306 307 306 306 307 306 305 305 307 307 303 307 305 308 310 309 291 293 296 299 301 301 296 304 304 302 300 296 297 298 301 299 298 296 297 293 300 299 298 297 293
303 303 303 303 304 304 305 305 305 305 305 305 304 305 306 306 303 303 305 310 310 305 279 294 295 306 303 297 298 299 305 299 295 296 297 295 297 296 295 297 298 296 301 298 299 297 296
302 302 303 302 303 304 304 305 305 304 305 304 304 304 305 304 306 307 309 311 307 288 278 289 297 296 296 298 297 301 298 300 299 294 297 297 303 299 298 299 300 301 298 298 298 296 290
302 302 302 302 303 303 304 305 304 304 304 304 304 304 303 304 301 312 312 305 287 281 291 289 293 296 295 295 296 298 294 292 291 285 287 292 293 299 300 295 299 297 294 289 288 289 288
302 301 301 301 301 302 303 304 304 304 303 303 304 304 304 305 307 310 307 292 280 287 289 294 292 294 291 294 296 296 295 293 297 294 291 286 285 291 298 296 295 295 294 288 284 288 292
300 301 301 301 301 301 302 304 303 304 303 303 303 302 302 306 310 309 295 282 284 288 292 290 292 290 290 293 294 295 295 295 296 297 290 289 289 297 294 296 296 295 292 297 292 295 291
301 300 300 301 301 301 302 303 303 303 302 302 300 298 299 308 310 303 288 283 288 293 293 292 288 291 288 291 291 292 294 296 295 299 301 295 289 295 295 298 296 293 297 289 292 285 284
299 299 300 300 301 301 302 302 302 302 301 301 298 291 300 308 308 293 283 286 289 294 293 290 290 289 290 289 290 289 290 296 297 297 302 298 294 292 295 293 292 292 291 294 294 292 286
299 299 300 300 301 301 301 301 301 302 302 299 295 286 303 308 289 290 284 289 292 293 294 292 292 291 290 290 289 289 289 293 298 298 294 299 296 289 291 298 300 298 295 294 289 289 293
300 300 300 300 300 301 301 301 302 302 302 299 290 291 303 304 284 286 289 288 292 290 291 290 289 291 292 289 286 290 291 296 297 295 293 295 293 287 289 293 297 294 296 297 296 295 291
299 300 300 300 301 301 302 302 302 302 302 300 291 285 293 296 295 289 287 287 287 293 292 292 291 292 290 289 292 289 290 294 296 296 296 296 290 288 285 289 295 292 294 296 295 291 291
301 301 301 301 302 302 302 302 302 303 302 300 290 287 292 285 288 290 289 288 287 287 292 293 290 291 289 286 288 289 292 293 295 298 296 294 287 289 290 291 292 293 293 294 293 294 291
301 302 301 302 302 302 302 302 302 302 302 295 285 286 292 290 291 289 288 287 286 288 290 289 289 291 291 288 289 287 291 292 291 295 294 295 288 291 289 292 292 290 293 294 295 295 295
301 301 302 302 301 301 302 302 303 302 301 293 295 296 293 289 289 287 288 289 288 291 292 293 292 290 289 291 294 296 296 296 295 292 291 291 289 287 284 290 291 287 292 294 295 298 297
301 302 302 302 302 302 302 303 303 303 302 296 294 295 289 285 288 288 289 290 290 291 290 293 294 292 295 299 299 298 296 294 294 294 294 290 289 287 285 287 278 290 299 297 296 297 302
302 302 302 303 303 303 303 303 302 302 303 297 298 294 290 286 289 288 290 290 291 293 292 293 295 296 300 296 289 286 288 288 291 294 293 293 289 285 283 284 287 290 295 294 292 292 303
301 302 302 302 302 302 302 302 302 302 302 300 297 299 296 289 289 292 289 291 289 289 291 293 298 300 298 291 288 282 282 286 286 289 295 294 293 288 286 281 280 292 298 301 300 291 300
301 301 301 302 302 301 301 302 302 302 302 302 297 299 295 289 294 294 290 290 295 293 291 293 292 292 296 288 285 284 284 289 284 285 287 288 288 284 285 283 288 297 301 303 288 290 299
302 301 301 301 301 302 301 302 302 302 302 302 297 300 293 290 295 298 298 293 294 294 289 293 290 290 287 285 286 287 287 289 287 289 289 287 285 285 286 283 281 300 299 293 296 302 301
302 302 302 301 302 302 302 302 302 302 302 302 295 301 298 291 293 301 302 303 301 299 296 295 292 291 293 290 291 291 288 291 288 284 294 287 290 289 289 289 298 300 301 301 301 300 302

GFSGBSN_sfc_thetae_093.txt.gz
Theta_e
312 312 312 312 313 313 311 311 312 312 311 311 311 310 309 310 310 310 311 312 312 312 312 312 313 313 306 297 298 311 325 324 319 317 309 307 301 300 297 301 302 300 302 304 304 303 302
310 311 312 312 312 311 312 312 312 312 311 311 311 311 310 309 309 309 310 311 312 312 312 312 312 312 301 290 303 306 308 310 313 308 308 308 305 306 302 301 300 303 303 303 303 302 303
310 310 310 310 311 311 311 312 312 311 311 311 311 310 310 308 308 309 310 311 311 311 311 311 312 309 298 293 303 303 304 303 304 305 301 306 310 304 303 300 304 303 299 301 302 301 299
309 309 310 310 310 310 311 311 311 311 311 311 310 310 309 309 309 309 310 310 310 310 310 311 312 305 293 305 304 304 304 303 305 304 303 306 307 304 303 304 303 298 297 292 298 301 302
308 308 308 308 309 310 310 310 310 310 310 310 310 309 309 309 309 309 309 310 309 310 310 311 305 300 294 310 303 306 305 302 303 303 303 305 304 299 301 295 292 293 289 292 295 301 301
308 308 307 307 308 308 309 310 310 310 310 310 309 309 309 308 308 308 308 308 308 309 308 309 306 298 302 300 305 305 305 305 300 298 298 296 294 290 291 290 285 288 289 290 291 297 300
307 307 306 306 306 307 308 308 308 309 309 309 308 308 308 308 308 308 305 299 297 296 301 298 299 297 300 306 308 303 305 303 303 297 289 292 286 284 287 290 293 293 292 291 294 297 297
306 306 306 306 306 307 307 307 307 308 308 307 308 308 307 306 307 307 301 295 300 298 291 299 299 299 304 306 299 302 305 298 301 289 292 289 286 290 292 292 291 290 289 289 293 297 297
304 304 305 305 305 306 306 306 306 306 307 307 307 307 306 306 307 301 296 298 307 304 291 293 297 296 298 300 296 296 298 296 295 295 294 289 293 296 292 290 288 288 288 290 291 294 295
303 304 304 304 304 304 303 304 305 306 306 306 306 306 305 306 299 299 300 305 306 303 283 288 293 296 298 299 294 300 300 296 294 290 294 294 298 297 293 290 291 285 291 291 293 291 285
302 302 302 302 303 303 303 304 305 304 305 306 306 305 305 304 295 293 300 304 306 300 272 292 295 304 300 295 297 297 302 297 291 291 293 291 293 292 292 292 294 290 293 292 294 290 289
301 302 302 302 302 303 302 303 303 304 305 305 305 305 305 299 296 296 301 304 300 283 273 288 295 293 293 295 295 298 297 299 297 291 292 291 295 293 293 296 296 297 295 295 293 292 283
301 301 302 301 301 301 301 302 303 303 303 304 305 304 301 299 290 301 302 298 281 277 289 287 290 293 293 292 293 294 294 291 285 282 282 287 289 292 295 290 295 293 290 282 281 282 280
301 301 301 301 302 302 302 302 303 302 303 304 304 304 301 299 298 299 299 289 276 285 285 292 290 292 289 292 292 292 291 287 291 288 283 281 280 288 293 291 290 292 291 283 278 280 284
300 300 301 301 301 301 301 301 302 302 302 303 303 295 295 297 299 299 291 279 279 284 289 287 289 287 287 292 291 291 289 289 291 290 284 285 285 294 293 293 295 291 288 294 288 289 285
300 300 300 300 300 300 301 301 301 301 300 301 293 292 292 298 299 294 286 280 283 288 289 289 283 289 284 287 288 287 290 294 294 297 295 292 285 294 295 294 295 292 296 287 288 279 277
299 299 300 300 300 300 300 301 301 301 302 302 291 285 292 299 301 288 279 280 284 290 290 287 286 285 287 286 288 288 289 294 296 297 298 295 290 290 295 288 287 288 288 291 289 287 280
299 299 300 300 300 301 301 300 300 301 301 297 289 280 295 299 284 284 280 285 289 287 290 288 290 288 288 287 286 287 287 292 297 295 291 291 291 286 289 296 297 291 289 288 282 282 285
299 299 300 300 300 301 301 301 300 300 300 292 286 284 295 298 275 279 285 286 288 286 287 288 288 290 291 286 283 286 289 296 297 294 289 290 286 282 285 290 295 292 292 291 289 288 283
299 300 300 300 300 300 300 300 301 301 300 295 287 276 284 290 289 286 284 284 284 289 287 288 288 290 288 287 288 286 287 294 296 294 296 294 287 284 280 284 288 286 289 292 291 285 284
300 300 300 300 301 301 301 301 301 301 301 293 285 282 287 278 282 286 286 286 284 284 289 289 287 287 286 284 286 284 289 292 294 296 295 291 283 286 287 289 289 288 287 288 287 291 287
300 301 301 301 302 302 302 302 302 302 301 291 284 283 287 285 287 286 285 283 284 286 287 286 286 288 288 285 287 285 288 289 289 293 292 295 286 288 286 290 290 287 289 289 289 289 290
300 301 302 301 302 302 302 302 302 302 300 290 291 291 287 284 284 283 283 285 286 287 288 289 289 287 286 289 292 292 292 292 292 290 288 289 287 283 281 288 287 282 287 289 290 291 290
301 301 302 302 302 302 303 302 302 302 301 294 292 290 284 279 282 282 284 286 286 287 286 290 291 288 292 299 296 294 292 292 292 292 293 288 287 284 280 283 273 287 293 293 294 295 296
301 301 302 302 302 303 303 303 303 302 302 295 295 291 286 279 283 284 285 286 288 289 288 289 292 295 297 294 287 283 282 284 288 291 290 291 287 279 278 278 284 288 294 293 291 291 296
301 301 302 302 302 302 302 303 303 303 302 298 294 296 291 284 282 287 285 286 285 284 285 289 295 296 296 288 281 277 276 283 283 286 292 291 289 283 280 278 274 289 294 299 297 286 298
301 302 302 302 302 302 302 302 303 303 302 298 294 297 291 285 288 289 284 284 289 287 285 288 290 290 293 285 278 278 278 286 281 284 283 284 284 280 279 279 283 294 296 299 286 286 297
301 301 302 302 303 303 302 302 302 302 302 298 295 297 291 285 288 293 293 289 289 288 284 288 287 289 287 280 279 279 278 284 285 288 286 283 282 280 280 280 277 295 295 290 292 296 295
301 301 301 302 302 303 302 302 302 302 302 300 293 298 297 290 289 294 294 296 295 296 292 291 290 289 288 283 283 283 279 282 285 279 291 282 287 282 284 283 293 296 294 297 297 293 293

GFSGBSN_sfc_thetae_096.txt.gz
Theta_e
311 311 311 312 312 312 312 313 313 313 312 312 312 311 310 309 309 309 310 311 310 310 311 311 311 312 305 295 295 306 325 325 321 316 308 304 299 296 293 295 298 297 300 302 303 302 301
310 310 310 311 310 311 312 312 313 313 312 312 312 312 311 310 309 309 310 310 310 310 310 310 311 311 300 288 300 303 302 302 312 310 308 307 303 302 299 298 297 301 301 301 302 302 301
309 310 310 310 310 309 310 311 311 311 312 311 311 311 311 309 309 308 309 309 309 310 309 310 310 308 298 293 300 301 301 300 302 302 299 303 306 303 302 298 303 301 296 299 299 299 299
309 308 309 308 309 309 310 310 310 310 311 311 311 311 310 310 309 309 309 309 309 309 309 309 310 306 293 304 302 302 301 301 303 302 301 302 302 300 300 302 301 296 295 290 297 299 300
308 308 309 308 308 309 309 309 309 309 309 310 310 310 310 309 309 309 308 308 308 309 309 309 304 300 291 308 303 305 303 300 301 302 300 304 300 297 298 294 290 292 289 290 293 299 297
307 307 307 307 307 307 307 308 309 309 309 309 309 309 309 309 308 308 307 308 306 307 306 308 306 296 299 299 304 305 303 303 300 298 297 296 292 290 289 289 284 287 288 287 289 293 297
306 306 306 306 307 307 307 307 307 307 307 307 308 308 307 307 307 307 304 297 297 295 300 297 297 295 298 303 307 302 305 301 299 294 288 292 285 282 287 292 293 291 289 288 289 295 293
305 305 305 305 305 306 306 306 306 306 306 306 307 307 306 306 307 306 301 293 299 299 290 298 298 300 302 304 297 301 304 295 297 289 291 288 284 289 291 290 289 288 286 287 291 293 292
303 303 303 304 305 305 305 305 305 304 305 305 306 306 306 306 306 299 294 296 303 303 288 292 296 295 296 298 294 294 299 294 291 291 289 285 290 293 290 288 287 286 285 285 286 291 293
302 302 303 303 304 304 304 304 304 304 305 305 305 305 305 305 294 295 293 300 302 300 280 285 291 294 297 297 292 298 299 293 291 288 293 292 294 291 291 288 288 283 290 288 287 285 282
302 301 301 302 302 302 303 303 303 303 303 304 305 305 305 303 292 292 297 300 303 296 270 288 293 301 298 293 295 295 298 293 288 289 288 287 291 292 291 293 291 287 291 289 287 287 287
301 301 301 302 302 302 302 302 302 302 303 303 304 304 303 297 292 298 300 300 296 279 271 286 294 293 291 293 294 296 295 296 294 288 290 288 293 290 291 294 294 295 291 292 290 288 281
300 301 301 301 302 302 302 302 302 302 302 303 303 303 301 299 288 297 299 293 279 275 287 286 287 290 290 290 291 292 292 289 284 281 282 286 288 291 292 287 292 291 286 280 278 279 279
300 301 301 301 301 301 302 302 302 302 302 303 302 303 300 298 295 295 297 286 275 283 284 290 289 290 288 291 291 290 290 286 290 285 281 280 279 287 291 289 286 288 287 281 277 278 281
300 300 300 300 301 301 301 301 301 301 302 302 301 293 293 294 296 297 289 279 279 283 286 285 287 286 287 290 291 289 288 288 290 290 282 281 281 290 290 293 291 287 286 291 285 285 281
300 301 300 300 300 300 300 300 301 301 301 300 295 289 289 295 295 293 285 280 282 287 287 287 281 286 282 285 286 288 287 292 291 292 292 289 283 292 294 290 291 291 293 284 285 278 277
300 300 299 299 300 300 301 300 301 301 301 301 294 283 290 294 297 289 276 279 283 287 288 285 284 283 284 284 286 286 287 293 295 295 295 293 289 288 293 286 285 286 285 289 289 285 279
299 299 299 300 300 301 301 301 301 300 300 298 288 274 290 296 282 285 275 284 288 286 289 287 288 287 286 287 285 285 286 289 294 294 289 291 290 285 288 295 296 291 288 289 282 282 284
300 300 300 300 300 301 301 300 300 300 300 294 285 281 291 297 278 278 283 285 286 285 286 286 286 289 289 285 283 286 288 292 294 292 290 291 286 282 284 290 293 289 291 290 291 286 282
299 300 300 300 301 301 301 301 300 300 300 294 286 277 281 287 289 284 281 281 282 289 287 287 286 288 287 285 288 285 286 290 293 293 297 294 286 282 280 282 287 286 288 289 287 283 283
299 300 300 300 301 301 301 301 301 301 300 295 284 277 283 280 280 285 284 284 282 282 288 288 285 286 285 282 284 284 287 289 292 294 295 291 282 286 287 288 288 287 286 287 286 287 284
299 300 301 301 302 302 302 302 302 301 301 292 280 277 283 283 286 284 284 283 282 283 285 284 284 287 287 283 285 283 287 288 289 292 290 293 284 287 285 288 288 286 288 288 289 289 288
299 300 301 301 302 302 302 302 302 302 299 290 289 288 285 283 283 281 281 284 284 286 287 288 287 286 286 287 291 292 293 292 292 289 286 287 285 281 280 286 286 281 286 288 289 293 292
299 300 301 301 302 302 303 303 302 302 300 291 290 287 282 278 280 280 282 284 283 284 285 289 289 287 291 296 295 293 293 292 292 291 291 285 285 283 280 281 272 287 295 296 293 293 294
299 299 301 301 302 302 302 302 303 303 302 294 291 288 284 276 281 282 283 284 285 287 286 287 289 293 295 292 286 283 282 283 286 289 289 289 285 280 277 276 282 287 292 292 291 290 296
299 299 300 301 302 302 302 302 303 303 302 298 294 293 288 282 281 285 283 285 281 281 283 286 293 295 294 285 283 278 276 281 281 285 290 289 287 282 279 277 274 287 294 297 296 286 294
298 300 300 301 302 302 303 303 302 303 303 299 294 296 291 284 287 287 282 283 286 285 283 285 287 288 291 283 280 277 277 285 279 281 282 282 282 280 279 278 282 292 295 297 282 284 293
298 299 300 301 302 302 303 303 302 302 303 299 294 297 290 286 288 291 290 286 287 286 282 286 285 286 287 283 280 278 276 282 283 287 285 283 280 279 281 278 276 294 294 287 290 294 294
298 299 300 301 301 302 302 303 303 302 302 300 293 297 297 290 289 292 292 293 293 292 289 292 288 289 288 283 282 281 278 281 285 280 289 283 286 282 284 283 294 294 292 295 294 292 291

GFSGBSN_sfc_thetae_099.txt.gz
Theta_e
310 310 310 310 311 311 311 311 312 312 313 313 312 311 310 310 310 310 311 310 310 309 308 309 310 311 305 294 292 303 321 318 318 311 304 301 296 294 290 292 294 295 297 300 301 300 299
309 309 310 310 310 310 310 309 309 311 312 312 312 312 311 310 310 310 310 310 310 310 309 309 310 310 300 289 299 300 300 299 305 311 307 304 300 299 295 294 293 297 298 299 300 300 300
309 309 309 309 309 308 308 308 308 309 310 311 311 311 311 310 309 309 309 310 309 309 308 308 309 306 298 294 301 302 302 298 298 305 303 302 306 301 300 297 301 299 295 296 296 298 298
307 307 308 308 309 308 307 307 308 308 309 310 311 310 310 310 309 309 309 309 308 308 308 308 309 304 292 306 304 301 300 298 301 301 300 300 299 296 297 300 298 295 294 289 296 298 299
307 307 307 307 307 307 307 308 307 308 308 308 309 309 309 309 308 308 308 308 308 308 307 307 302 300 291 307 301 305 302 298 299 299 298 302 298 294 296 292 288 290 285 289 292 299 297
306 306 306 305 306 306 307 307 307 307 307 307 307 308 308 309 308 307 307 306 305 306 305 306 304 295 298 297 304 305 302 301 298 297 295 294 291 288 288 287 283 285 286 285 288 292 295
304 305 304 304 304 305 306 306 306 306 306 306 306 306 308 307 307 307 303 295 294 292 299 295 296 295 297 303 307 303 305 300 298 293 286 289 285 283 286 291 291 290 288 287 287 293 291
302 303 303 303 304 304 306 305 305 306 305 305 305 305 307 306 306 307 298 290 293 297 289 297 297 298 301 303 296 299 304 296 294 288 289 286 283 287 290 291 289 288 286 285 288 292 291
302 302 302 302 303 303 304 304 304 304 304 305 305 305 305 305 305 297 292 294 301 299 291 292 296 295 296 298 294 294 299 294 290 290 287 285 287 291 289 286 285 285 284 283 285 287 287
301 302 301 301 302 303 303 303 304 304 304 303 304 304 304 303 297 291 291 299 300 300 282 284 289 292 296 296 290 297 298 294 289 287 288 288 291 289 287 286 286 282 288 287 285 282 278
300 301 301 301 302 303 302 303 303 303 303 303 303 303 304 302 291 290 295 299 299 295 269 286 290 299 297 292 293 293 297 292 286 287 289 287 289 288 286 287 288 285 290 287 286 282 281
300 300 301 301 302 302 302 302 303 303 303 303 303 303 303 299 291 294 297 299 297 279 271 285 292 290 289 291 292 292 292 294 291 287 287 287 290 288 290 292 293 293 288 288 286 283 278
299 299 301 301 301 301 302 302 302 302 302 302 303 303 301 299 288 294 297 294 280 273 285 284 285 289 289 288 289 290 288 287 283 279 279 283 285 288 291 285 289 288 284 279 278 279 278
299 300 300 300 301 301 301 301 301 302 302 302 302 303 298 298 294 294 295 285 273 281 282 287 286 289 287 289 289 289 288 284 288 284 280 278 278 285 289 287 284 285 285 279 276 276 280
299 299 300 301 300 300 301 301 301 301 301 301 301 291 291 293 295 293 289 274 278 281 284 283 286 285 285 287 287 289 286 286 288 287 281 279 280 288 289 290 289 285 284 289 283 282 280
301 300 300 300 300 300 300 301 301 301 301 300 290 290 288 293 295 291 282 279 281 285 285 286 281 285 280 283 284 285 286 292 289 293 291 285 280 290 293 289 289 288 290 282 283 277 276
299 299 299 300 300 300 301 301 301 301 301 301 288 283 291 293 294 283 272 277 282 287 287 284 282 282 283 284 286 284 287 290 291 291 293 288 287 285 292 286 283 285 285 287 286 283 279
298 300 300 300 300 300 301 301 301 300 300 295 286 275 291 294 279 280 272 282 287 285 287 286 287 286 285 285 283 284 286 289 293 293 288 290 287 281 284 293 294 287 286 287 281 280 282
300 299 299 300 300 301 301 301 301 300 299 293 285 284 290 292 279 278 282 284 285 284 285 285 284 287 288 284 280 286 286 292 293 291 289 289 285 280 282 288 291 289 290 288 288 284 281
299 299 299 300 301 301 301 301 301 300 300 293 285 277 281 285 287 283 281 280 280 287 286 286 285 286 284 284 286 283 285 290 293 293 295 293 286 282 279 281 288 284 288 288 286 281 281
299 298 299 300 301 301 302 302 301 301 300 292 286 276 280 277 282 283 284 282 281 281 287 288 284 284 283 280 283 282 287 289 292 294 294 292 282 286 288 288 287 286 287 288 285 285 282
298 298 299 300 301 302 302 302 302 302 300 289 278 277 281 280 283 282 283 282 282 284 284 283 283 285 286 283 284 281 286 286 286 292 289 293 284 286 284 286 285 284 287 287 287 288 288
297 298 299 300 301 302 302 303 303 302 298 289 288 285 282 280 280 279 281 283 283 284 285 287 286 285 284 286 289 290 291 291 291 287 287 287 285 281 279 284 283 280 285 287 290 291 292
297 298 299 300 301 301 302 303 303 303 300 289 291 284 279 276 280 280 282 283 282 283 282 286 288 286 290 295 293 293 291 291 291 290 291 285 284 281 278 280 271 285 296 293 292 293 294
297 297 299 300 301 301 302 302 302 302 302 294 291 286 282 274 280 281 282 282 284 285 284 285 288 291 295 292 285 282 282 283 285 289 289 290 285 278 275 276 280 288 290 291 290 288 293
296 297 298 299 301 301 302 302 302 302 303 297 294 292 287 281 278 284 281 283 280 281 282 285 290 294 293 285 280 278 277 280 281 285 289 288 286 280 277 276 271 285 293 296 295 285 292
296 297 298 299 300 301 302 302 302 303 302 299 295 295 290 283 286 286 281 282 285 283 281 283 287 287 291 283 278 278 279 283 278 280 281 281 281 279 277 275 280 290 294 296 282 283 292
295 296 298 298 300 301 302 302 302 303 303 299 294 296 291 285 286 289 289 284 286 284 279 283 281 283 284 282 280 279 278 281 281 285 284 282 280 279 280 276 275 293 293 285 288 293 292
295 296 297 299 300 301 302 302 303 303 303 300 292 297 296 289 289 292 292 292 291 290 287 286 286 286 288 284 282 282 279 278 283 278 288 283 286 281 283 282 291 292 290 293 293 290 291

GFSGBSN_sfc_thetae_102.txt.gz
Theta_e
309 308 309 309 309 309 309 309 309 309 309 310 310 310 311 311 311 310 311 310 309 309 308 309 309 309 303 293 292 299 311 306 315 309 302 298 294 293 289 290 291 293 295 297 299 298 297
308 309 309 309 309 308 308 308 308 307 309 309 310 311 310 310 309 310 310 310 310 309 308 308 308 309 299 287 300 299 300 300 300 308 304 300 297 296 293 292 291 294 294 296 298 299 298
307 307 307 307 308 308 308 307 307 307 308 308 309 310 310 309 309 309 309 309 309 309 307 307 308 304 295 292 301 301 301 299 298 300 303 304 302 299 296 293 297 296 292 294 294 296 296
306 306 306 306 307 307 307 307 307 307 308 308 308 308 309 309 309 309 309 308 308 308 307 307 307 302 290 302 304 302 303 299 300 299 298 301 300 298 295 296 295 292 292 287 294 296 297
304 305 305 305 305 305 306 306 307 307 307 307 307 307 308 308 308 308 308 307 307 307 308 307 300 298 289 305 300 303 303 298 298 298 298 302 297 292 293 288 286 287 283 286 290 296 296
303 304 304 303 303 304 305 305 306 306 306 306 306 306 307 307 307 307 307 306 305 304 304 304 301 291 294 291 303 304 303 300 298 296 295 293 290 287 287 286 281 284 285 285 286 290 293
303 303 303 302 303 303 304 304 305 304 305 305 306 306 305 307 307 307 301 293 289 291 298 293 293 292 294 302 305 302 302 300 298 293 287 290 286 281 284 289 290 288 286 286 286 292 290
302 302 302 302 302 302 303 303 304 304 304 304 304 304 305 305 305 305 296 288 290 294 286 294 294 295 299 300 295 298 302 296 293 288 289 286 283 287 289 289 289 288 286 285 287 291 290
300 301 301 301 301 302 303 303 303 303 304 303 303 303 303 304 303 296 291 292 299 298 288 291 295 294 295 297 293 293 298 295 292 289 287 285 287 290 288 286 286 285 285 283 285 285 284
300 300 301 301 302 302 302 303 303 303 303 303 303 303 304 303 296 293 292 296 299 299 281 284 288 292 295 295 290 298 298 295 290 289 290 287 292 288 286 285 286 282 286 286 284 281 276
299 300 299 300 302 302 302 302 302 303 303 303 303 303 304 302 295 291 294 296 300 296 269 284 288 297 295 289 291 292 296 292 287 287 289 287 290 287 286 285 287 283 287 285 284 280 278
299 299 299 301 301 301 301 302 302 302 302 302 302 302 303 298 294 296 295 295 295 280 270 284 290 288 288 290 290 290 292 292 291 287 287 287 289 290 289 289 288 290 287 286 284 281 275
298 299 299 300 300 300 301 301 301 302 302 302 302 302 300 300 289 295 293 292 278 272 283 281 283 287 287 287 288 290 287 285 281 278 279 283 285 288 290 285 288 286 283 278 277 277 277
298 299 299 300 301 300 300 301 301 301 301 302 302 302 297 296 295 292 291 284 272 280 279 286 286 289 284 287 288 288 286 284 287 284 280 279 278 284 288 287 284 284 283 278 275 276 277
300 301 300 300 300 300 300 301 301 301 301 302 300 291 289 292 294 292 286 275 276 281 283 282 285 283 282 285 286 286 287 288 288 289 280 279 279 286 287 288 288 284 281 287 281 281 279
299 299 299 299 299 299 300 301 301 301 301 301 290 289 287 292 293 288 275 277 280 285 284 284 278 283 279 283 283 284 286 289 288 291 292 284 279 288 291 288 288 286 288 281 281 276 275
298 298 299 300 300 300 300 301 301 301 300 301 287 282 288 293 292 282 266 276 281 286 287 282 281 280 282 282 284 283 286 290 290 290 292 288 284 284 288 285 283 283 282 285 284 281 277
298 298 300 299 299 300 300 301 301 301 300 294 286 274 287 296 281 280 272 280 285 283 286 285 285 284 284 283 281 284 284 287 292 291 288 289 285 281 283 290 293 286 285 284 279 279 281
298 298 299 299 300 300 301 301 301 300 299 293 283 283 288 290 272 278 282 282 284 283 284 283 283 286 287 283 277 283 285 291 292 290 288 289 284 280 281 286 288 287 288 287 287 283 280
299 298 299 299 300 300 301 301 301 301 300 291 283 276 279 284 287 282 280 281 280 286 286 286 284 285 282 282 284 281 284 290 292 292 295 293 285 281 278 280 284 283 286 287 285 280 280
298 297 298 298 299 300 301 302 302 301 300 289 286 277 280 273 282 283 283 282 280 280 285 286 283 284 282 279 280 281 285 287 290 292 292 291 280 283 285 286 287 286 285 286 283 284 281
297 297 298 298 299 300 301 302 302 302 300 288 282 276 280 280 281 281 282 281 281 282 284 283 281 283 284 280 282 280 284 285 285 290 289 291 283 285 282 287 286 284 287 287 287 287 287
297 296 297 298 299 300 301 302 302 302 299 290 286 285 282 279 279 277 278 282 282 283 284 287 283 282 282 286 288 288 288 289 289 287 286 286 285 281 278 284 283 280 283 286 288 289 289
296 297 297 297 298 300 301 301 302 302 299 291 288 286 281 275 278 279 281 282 281 282 281 284 285 283 287 293 292 291 290 290 289 289 290 285 284 281 280 280 271 285 293 292 290 291 293
296 297 297 297 298 300 300 301 301 302 302 293 292 287 283 273 280 280 281 281 282 283 282 283 286 288 293 291 284 282 282 282 284 288 288 289 284 279 277 276 279 287 290 290 289 288 292
296 297 296 297 298 299 300 301 301 302 302 297 293 293 288 279 278 283 281 282 279 280 281 284 289 291 290 285 282 278 276 280 280 284 288 287 286 281 279 276 271 283 292 294 294 284 292
296 296 296 296 298 299 299 300 301 302 303 298 294 295 290 283 284 285 280 281 284 283 281 283 285 284 289 281 280 277 278 282 278 280 280 281 282 279 278 277 280 287 292 295 279 281 291
296 296 295 296 297 298 299 300 301 302 302 300 295 296 290 285 285 288 288 284 284 284 280 283 280 284 283 280 280 280 277 280 281 284 279 280 279 278 280 277 274 290 291 283 286 289 290
295 296 295 295 297 298 299 300 301 302 302 301 292 297 296 289 288 292 291 291 290 289 285 286 283 286 284 285 284 284 280 280 280 276 287 282 285 282 282 281 289 289 289 290 290 288 288

GFSGBSN_sfc_thetae_108.txt.gz
Theta_e
309 309 309 309 309 309 309 308 308 308 308 308 308 308 309 309 309 309 309 310 309 309 309 309 309 309 305 297 297 305 314 310 306 310 305 303 301 301 298 301 303 302 303 305 306 305 305
307 306 307 307 307 307 307 307 307 307 308 308 308 308 308 308 308 308 307 308 309 308 308 309 309 308 301 290 305 306 305 304 303 310 304 304 302 304 301 300 299 303 303 304 305 305 305
306 306 306 306 305 306 306 306 306 307 307 307 307 307 307 307 307 307 307 307 308 308 308 309 309 306 297 294 305 306 305 303 303 304 304 306 305 303 302 299 303 301 298 300 301 302 301
304 304 305 304 304 304 305 305 306 306 306 306 306 306 306 306 306 306 306 307 306 307 307 308 308 305 293 304 306 304 305 303 304 304 303 306 304 303 303 304 301 297 298 294 301 303 302
303 304 303 302 302 303 303 303 304 305 305 305 305 305 305 306 306 307 307 306 306 306 307 309 305 300 292 304 299 303 304 299 301 302 303 302 301 301 301 297 294 297 292 295 298 303 302
303 303 303 302 302 302 302 303 303 304 304 304 304 305 305 305 305 305 305 306 306 305 305 306 303 292 297 294 300 305 309 304 301 300 297 296 296 293 296 294 288 291 293 295 295 300 301
303 302 301 301 301 302 302 303 302 303 303 304 304 304 304 304 304 305 303 301 295 294 295 290 291 292 295 298 302 301 307 304 302 298 290 293 289 288 292 295 295 295 293 291 295 299 299
302 301 301 300 300 301 302 302 302 302 303 304 304 304 304 304 304 303 302 295 292 294 286 293 293 293 295 296 290 296 304 299 297 291 293 290 287 293 295 294 292 290 288 290 293 297 297
300 300 300 300 300 300 301 301 302 302 303 303 303 303 303 303 304 301 298 296 301 300 288 289 293 293 294 295 290 292 299 299 295 292 291 288 290 293 292 291 290 291 289 288 288 293 296
300 300 299 299 299 300 301 301 302 302 302 302 303 302 302 303 299 300 297 301 303 302 282 285 291 295 296 295 291 298 299 298 297 292 291 291 294 291 290 289 290 287 293 291 290 289 286
300 298 299 298 300 300 300 301 301 302 302 302 302 303 303 302 300 297 299 303 303 297 273 289 289 302 296 292 294 294 299 296 292 293 293 290 290 290 290 290 291 289 293 290 290 289 288
299 298 298 298 300 300 300 300 300 301 302 302 302 303 302 302 302 301 303 302 299 283 273 284 288 287 290 293 293 295 295 297 296 293 295 293 298 295 293 293 293 293 290 290 290 288 282
299 297 298 299 299 300 300 300 300 301 302 301 302 303 301 302 296 303 303 297 283 277 287 282 283 286 287 290 290 291 290 289 287 284 286 290 292 295 297 291 293 291 289 284 282 282 282
298 298 299 298 299 299 299 300 300 301 302 301 302 300 300 302 302 302 299 290 276 281 281 287 285 285 284 288 290 290 289 288 292 290 286 284 282 291 295 294 290 289 289 284 277 281 284
297 299 299 299 298 298 299 300 301 301 302 302 301 302 301 301 303 302 291 283 279 282 284 282 284 281 283 286 287 289 288 288 291 293 286 284 284 291 293 295 294 290 287 293 287 288 285
298 299 298 298 299 299 299 300 301 301 301 301 298 298 297 303 304 297 288 278 282 286 286 285 280 283 280 282 283 286 287 289 290 293 296 290 284 289 291 293 293 292 294 285 288 279 278
297 298 297 298 300 299 299 300 301 301 301 300 297 291 297 303 302 292 281 280 282 287 289 285 283 282 283 282 284 284 285 289 292 292 296 294 290 288 291 289 286 287 288 289 289 288 281
297 298 298 299 298 298 299 301 301 301 301 298 295 287 298 302 290 290 284 284 286 287 290 288 288 286 284 285 284 284 283 287 292 292 290 293 291 286 288 295 295 291 288 290 284 283 286
297 298 298 297 298 299 299 301 301 301 299 299 291 291 299 298 284 283 286 285 286 286 287 287 286 288 289 285 282 286 287 292 293 293 290 292 289 283 285 290 294 291 293 292 292 291 287
299 298 299 298 298 298 299 300 302 302 300 300 292 285 291 295 292 285 283 284 284 289 288 289 287 289 287 286 288 285 287 291 293 294 294 295 289 285 282 286 290 288 291 293 292 287 287
299 298 299 298 297 297 299 300 302 302 301 298 292 286 287 284 287 285 285 284 283 283 287 289 286 286 284 281 285 284 288 289 291 294 293 292 286 288 289 290 290 290 290 291 290 291 287
298 298 299 297 296 297 298 300 301 302 300 296 287 288 289 287 285 284 284 283 281 284 284 284 285 286 286 283 285 284 287 288 287 291 290 292 286 286 285 289 289 288 290 291 291 291 291
298 298 298 297 296 297 298 300 301 302 300 294 295 294 290 285 284 284 284 283 283 285 286 287 286 285 285 288 291 292 293 293 292 290 287 287 287 285 282 287 287 283 288 290 292 293 293
298 298 297 297 296 297 298 299 301 302 300 297 295 295 288 284 285 284 283 284 283 284 283 286 288 286 290 295 296 296 295 293 293 292 293 287 286 287 283 284 276 290 297 295 292 293 295
297 297 297 297 297 297 298 299 300 301 301 297 296 294 289 283 286 285 285 285 286 287 285 286 289 292 296 294 289 285 286 287 288 292 291 292 287 284 281 281 284 287 291 292 291 289 295
297 297 297 297 297 297 297 298 300 301 301 297 295 296 291 285 286 287 285 286 285 285 286 287 293 296 295 291 287 280 279 281 282 286 292 291 290 285 284 278 276 288 292 298 298 285 294
298 297 297 297 297 297 297 298 299 300 301 299 295 297 290 286 290 290 287 286 289 287 286 288 289 289 294 285 284 282 282 286 281 281 282 285 286 283 282 281 284 291 292 296 285 285 292
297 297 296 296 296 297 296 297 298 300 300 299 296 297 293 287 290 292 292 289 290 289 285 289 288 289 289 284 284 284 284 286 285 286 285 284 283 284 284 280 278 291 294 289 290 292 292
297 297 296 295 296 296 296 296 298 299 300 301 294 297 297 289 292 296 297 297 295 294 290 290 288 288 290 286 288 287 285 288 286 282 290 284 287 284 286 285 289 290 288 291 294 292 291

GFSGBSN_sfc_thetae_111.txt.gz
Theta_e
310 310 310 310 309 309 308 307 307 307 308 308 308 308 308 308 308 308 308 308 308 308 308 309 309 310 307 299 299 309 317 315 308 307 307 307 304 304 301 304 306 304 306 308 309 309 309
309 308 308 307 307 307 307 307 307 307 307 307 307 307 307 307 307 308 307 308 308 308 308 309 309 309 303 293 307 309 308 306 305 304 302 305 304 306 303 304 304 307 307 307 308 308 308
308 308 307 306 306 306 306 305 305 306 306 306 306 306 306 306 306 306 306 307 308 307 307 307 308 307 300 297 307 308 307 305 306 305 304 308 306 304 304 301 306 304 301 303 305 306 306
307 306 306 305 304 304 304 305 305 305 305 305 305 305 306 306 306 306 306 306 307 306 307 307 308 305 296 307 309 305 306 304 306 306 304 307 308 304 303 306 303 300 300 295 302 304 305
305 306 305 304 303 303 303 303 303 304 304 305 305 305 305 305 306 306 306 306 307 307 308 308 306 302 295 308 301 305 305 301 303 304 304 304 304 302 301 297 296 299 293 296 299 305 304
305 305 304 303 303 302 302 302 302 303 303 304 304 305 305 305 306 306 306 306 307 308 306 305 304 297 299 295 300 303 306 306 301 300 299 298 297 294 295 295 289 293 294 297 298 303 304
305 304 303 303 302 302 302 302 302 302 303 304 304 304 304 304 305 305 305 304 298 297 299 292 292 292 294 300 302 299 301 300 303 297 291 295 290 288 292 295 298 297 295 295 299 303 302
304 303 302 302 301 301 301 301 301 302 303 304 303 304 304 304 304 304 305 297 296 296 287 295 296 296 301 303 297 298 299 291 294 293 294 292 287 293 296 296 296 296 294 294 299 300 299
303 302 302 301 301 301 301 301 301 302 303 303 303 303 303 303 303 304 301 299 304 300 289 292 297 297 297 300 294 294 296 292 289 293 293 289 291 295 295 294 293 294 293 293 293 296 296
302 301 300 300 300 300 300 301 301 302 302 302 302 303 303 304 300 302 300 303 305 303 286 289 293 295 298 296 293 300 298 295 292 291 294 292 295 293 292 292 294 290 296 294 292 290 285
301 300 299 299 301 301 300 300 301 301 301 302 302 302 303 303 302 299 301 305 305 297 277 291 292 299 297 294 296 293 300 297 290 292 292 291 292 292 291 292 295 292 296 293 293 290 290
301 300 299 299 300 300 300 300 300 301 302 302 302 303 303 304 305 304 306 305 302 283 277 287 291 290 290 294 296 297 296 298 298 292 293 293 298 296 294 295 296 296 292 292 292 290 284
300 299 299 300 300 300 299 299 300 301 302 302 302 303 302 304 299 306 306 300 286 280 289 284 285 290 289 288 290 293 291 289 288 286 285 292 293 296 298 294 296 294 290 281 279 281 282
300 299 299 299 300 299 299 299 300 301 302 302 302 302 302 304 306 307 302 292 279 284 285 288 287 288 285 287 289 291 290 287 291 290 287 285 283 293 298 294 291 291 290 284 278 279 282
299 300 301 301 299 298 299 299 301 301 302 302 301 304 304 305 307 304 295 284 283 284 286 285 287 284 285 286 285 287 290 290 292 294 287 285 286 296 297 297 296 291 288 294 287 290 286
299 300 299 299 299 299 299 299 301 301 302 301 301 300 300 305 307 301 292 281 284 287 288 288 282 285 282 283 284 284 288 290 289 294 298 292 284 292 294 297 297 294 295 287 288 279 279
299 300 298 299 300 300 299 300 301 302 302 301 300 294 300 305 306 297 286 284 286 290 290 287 285 285 285 283 285 284 285 290 292 293 297 295 291 288 292 289 289 290 290 291 290 288 282
299 299 298 299 299 298 299 300 301 302 302 300 299 292 301 304 293 294 288 287 289 289 291 290 290 288 287 287 285 285 285 287 292 294 289 294 292 286 289 295 296 293 291 292 286 284 287
298 298 299 299 299 299 299 300 301 301 301 301 295 294 302 302 288 289 289 288 289 289 289 288 287 289 290 287 284 286 288 293 294 293 290 292 290 283 286 292 294 290 291 292 292 291 286
299 298 299 298 299 299 299 300 301 302 301 300 294 288 295 298 294 288 286 286 286 291 290 290 289 290 288 286 289 286 287 291 294 294 295 295 290 286 283 286 291 289 290 291 291 286 287
299 299 299 299 299 298 298 299 301 302 302 299 295 289 291 288 290 288 288 287 285 285 290 291 288 289 287 284 286 286 289 290 292 295 294 293 287 289 289 290 292 290 291 292 290 291 287
299 299 299 299 298 297 297 299 301 302 302 297 286 291 293 292 287 286 286 286 285 287 287 286 286 288 288 286 287 285 288 289 288 293 292 292 287 289 287 290 291 289 291 292 292 292 291
299 299 299 299 297 297 297 299 300 302 301 295 298 298 293 288 287 287 287 285 286 288 288 289 288 287 287 289 292 293 294 294 293 290 289 289 287 287 283 288 288 285 290 291 292 293 293
299 299 299 298 297 297 297 298 300 302 301 301 298 297 289 285 288 287 287 288 286 287 286 288 290 288 292 297 297 297 296 295 294 293 293 289 288 287 284 285 278 290 297 295 293 295 296
300 299 298 298 297 297 297 298 299 301 301 301 303 295 292 285 287 287 288 288 289 290 288 289 291 294 297 294 289 287 288 288 290 293 292 292 289 285 282 283 286 289 294 293 292 290 296
300 298 298 298 298 297 298 298 299 300 301 298 297 304 297 288 288 290 288 289 287 287 288 290 295 298 296 291 288 282 280 283 283 286 293 292 293 287 285 280 277 286 292 296 296 287 294
300 299 298 298 297 298 297 297 298 299 300 301 297 299 293 288 293 293 289 288 292 290 287 291 292 292 296 287 284 284 283 288 282 281 282 286 287 284 284 282 286 292 295 295 285 284 293
299 299 298 298 297 298 297 297 298 299 300 301 298 299 293 290 293 295 295 292 291 291 286 291 290 291 290 285 285 285 285 287 286 287 285 285 284 284 286 282 279 293 294 286 288 293 293
299 298 298 298 297 297 297 297 297 298 299 300 295 298 299 290 291 299 299 300 298 295 292 292 289 289 290 287 289 288 285 288 286 282 292 285 287 283 287 284 289 291 289 291 293 292 293

GFSGBSN_sfc_thetae_114.txt.gz
Theta_e
312 312 311 310 309 309 309 307 307 307 307 307 307 307 307 308 308 308 308 308 308 308 308 308 309 309 305 297 298 308 318 316 309 306 303 305 304 302 298 301 302 302 304 307 309 309 309
311 311 310 310 309 309 308 307 306 307 306 306 306 307 306 306 307 307 307 307 306 306 307 308 308 308 300 291 305 307 306 306 305 304 301 301 300 304 302 302 301 303 304 306 308 308 309
311 310 309 308 307 307 307 306 305 305 305 305 305 305 306 306 306 306 306 306 307 306 307 308 308 305 297 294 305 307 306 304 305 304 300 303 302 299 302 300 304 304 300 304 305 307 306
309 309 308 307 306 305 305 305 305 304 304 305 305 305 305 306 306 306 305 306 307 306 307 308 308 303 294 306 308 305 306 304 305 305 303 304 305 301 300 302 301 298 299 294 302 304 305
308 307 307 306 305 304 304 303 303 303 303 304 304 305 305 305 306 306 306 306 307 307 308 310 304 303 296 309 301 302 302 300 303 304 303 304 302 299 300 294 293 296 292 294 297 303 303
307 307 306 305 304 304 304 303 302 302 302 304 305 305 305 305 306 306 306 306 308 309 308 305 303 296 299 295 300 304 305 302 298 298 299 298 295 292 293 293 285 290 291 294 295 300 302
306 306 305 304 304 304 303 302 301 301 302 304 304 304 304 304 304 305 304 304 297 297 298 292 292 292 294 300 305 301 304 302 299 295 288 295 289 286 288 294 296 294 294 294 298 302 300
306 305 304 303 303 303 303 301 301 301 302 303 303 304 304 304 304 304 305 298 297 297 289 296 296 296 299 302 295 299 304 296 295 287 290 289 287 290 292 293 292 293 292 294 299 302 299
305 304 303 303 303 302 301 301 301 301 302 302 303 303 303 304 304 304 302 300 304 303 290 293 298 297 298 299 294 297 300 297 291 287 286 284 290 292 291 289 290 291 291 293 294 296 296
304 303 303 302 302 302 301 301 301 301 301 302 303 302 303 304 301 303 300 303 305 304 285 290 293 295 297 298 294 302 301 295 289 285 288 289 294 290 289 288 290 289 295 295 295 292 286
303 302 301 301 301 301 301 300 300 301 302 303 302 303 303 303 302 300 301 305 305 300 276 291 292 300 297 295 295 297 303 293 288 288 289 287 291 290 288 288 292 291 296 295 294 291 289
302 301 300 300 302 301 300 300 300 301 302 302 302 302 303 304 303 305 305 305 301 285 277 287 292 290 290 294 294 297 298 301 295 290 291 290 296 295 292 294 294 296 294 294 293 290 282
301 301 300 300 301 301 300 299 300 301 302 303 303 303 302 303 300 306 306 300 285 280 289 285 285 289 289 288 290 292 292 291 285 283 284 288 293 297 297 291 294 294 290 282 280 280 280
301 300 300 300 301 300 299 299 300 301 302 303 303 303 305 303 306 306 302 292 280 285 284 288 287 288 286 288 288 289 290 288 290 288 285 281 281 291 297 293 290 291 289 283 276 278 281
301 300 300 300 300 300 299 299 300 301 302 302 302 303 303 307 307 305 295 284 281 283 286 285 287 284 285 287 288 288 286 288 291 293 286 285 285 294 296 297 295 290 287 293 287 289 285
300 300 302 301 300 299 299 299 300 301 302 302 299 300 300 304 306 302 292 283 284 288 289 288 282 286 282 284 284 287 286 289 289 293 296 291 285 293 293 297 296 293 295 286 287 279 279
299 300 300 299 299 301 300 300 301 302 302 303 299 295 302 305 305 296 286 285 287 290 290 287 285 284 285 284 286 286 286 289 291 292 296 293 289 289 294 291 290 291 289 290 290 288 281
299 300 299 299 300 299 299 300 301 302 303 300 300 292 302 304 292 293 288 287 289 289 292 290 290 288 286 287 286 285 285 288 293 294 289 293 290 284 288 294 295 294 291 291 285 283 286
299 300 299 299 300 299 300 300 301 302 302 300 295 294 302 302 288 288 290 288 290 288 290 289 288 289 290 287 283 287 288 292 294 293 290 292 287 281 285 291 293 289 290 291 292 291 285
300 299 299 300 300 299 299 299 301 302 303 299 295 289 295 296 293 288 287 286 286 292 289 290 289 291 289 286 289 286 287 291 294 294 297 296 289 285 280 284 290 288 288 290 289 286 286
299 299 299 300 299 299 299 299 301 302 302 299 296 291 292 288 289 288 288 287 286 285 290 291 288 288 286 283 285 285 288 289 291 295 294 293 285 287 288 289 287 290 290 291 287 289 286
300 300 300 299 299 298 298 298 300 302 302 298 287 293 294 291 289 287 285 286 285 287 287 286 286 287 288 285 286 284 287 287 286 290 290 292 285 288 286 289 290 287 290 290 290 291 291
300 300 300 300 299 298 297 298 300 301 302 296 297 298 293 290 289 287 287 286 286 287 288 290 288 287 286 289 291 292 293 293 291 289 288 289 287 285 282 288 288 284 289 290 291 293 292
300 300 299 300 299 297 297 298 299 301 301 299 298 295 290 286 288 288 288 289 288 288 286 289 290 288 292 296 296 296 295 294 294 293 293 288 287 287 283 286 277 290 295 296 293 295 296
300 300 299 299 298 298 297 298 298 301 302 300 302 295 291 286 288 288 289 288 290 291 290 290 292 294 297 293 288 286 288 288 290 291 292 293 289 284 282 282 286 287 290 290 290 290 295
300 300 299 299 299 298 298 298 298 300 300 301 300 302 296 288 288 292 289 289 287 288 289 291 297 298 296 290 287 280 279 284 283 286 292 292 292 286 284 279 277 285 292 296 296 284 287
300 300 299 299 299 298 298 298 298 299 300 301 298 300 296 289 292 293 289 288 292 290 287 291 292 292 296 288 283 283 282 288 282 281 283 286 286 283 283 281 284 288 293 296 284 282 290
300 300 299 299 299 298 298 297 298 298 299 300 300 302 295 289 292 295 295 291 292 291 286 291 289 290 290 285 285 284 284 286 285 287 286 283 282 280 283 281 278 289 292 285 288 291 292
299 299 299 299 299 298 298 297 298 298 299 299 296 301 300 290 291 296 297 299 298 297 293 292 289 289 290 287 288 287 284 287 286 282 291 283 287 283 284 282 287 289 288 290 292 290 291

GFSGBSN_sfc_thetae_117.txt.gz
Theta_e
317 315 313 312 311 310 310 309 307 307 307 307 307 307 307 308 307 307 307 307 307 308 307 307 308 308 302 295 295 304 319 314 310 305 301 298 295 296 295 296 296 294 297 300 303 304 304
315 313 312 311 311 310 310 308 308 307 306 306 306 306 306 306 307 307 307 307 307 307 307 307 308 307 297 287 301 304 304 303 302 300 298 298 296 296 292 293 296 298 298 299 301 302 303
313 312 311 311 310 310 309 307 307 306 305 305 306 306 306 306 306 307 306 306 306 306 307 308 308 304 295 291 301 302 303 301 302 301 297 299 299 295 293 290 297 299 295 298 300 300 300
312 312 311 309 308 308 307 306 306 305 304 305 305 305 306 306 306 306 306 307 307 307 308 309 308 300 291 304 302 303 299 298 300 302 301 301 301 296 293 295 292 289 291 288 296 300 301
311 310 309 308 307 306 306 305 304 304 304 304 305 305 305 305 305 306 306 307 307 308 309 309 302 298 293 308 300 299 301 300 301 300 299 301 300 293 292 287 286 286 283 286 291 298 299
310 310 308 307 306 305 305 304 303 303 303 304 305 305 305 305 305 306 306 307 307 308 307 306 302 291 295 293 297 300 302 302 299 298 296 293 291 289 288 284 278 282 283 285 288 294 297
309 308 308 307 305 305 304 304 303 302 302 304 304 304 304 304 305 306 302 298 292 293 293 290 290 290 292 297 301 298 301 299 298 295 288 291 283 282 286 287 287 286 286 286 290 296 295
307 307 307 306 305 305 305 304 302 302 303 303 303 303 304 304 305 306 300 292 293 293 285 295 295 295 297 298 292 296 300 294 292 287 290 288 282 286 289 291 288 285 284 286 292 296 296
305 307 306 305 305 304 304 303 302 302 302 303 302 303 303 304 304 301 296 295 300 298 285 291 296 295 296 297 292 293 298 294 288 287 287 285 286 290 287 287 286 284 283 285 287 292 296
305 306 305 304 304 303 303 302 302 301 302 302 303 303 303 305 300 297 294 299 300 298 278 289 291 294 295 295 293 299 301 292 289 284 286 284 288 286 285 284 287 281 287 287 288 287 286
305 304 304 303 303 303 302 302 301 301 301 303 302 303 303 303 296 295 297 300 299 295 273 290 291 298 294 292 292 294 301 293 286 286 286 284 288 287 285 286 290 284 288 287 288 288 288
304 303 303 302 302 301 301 300 300 300 301 302 303 303 303 301 297 299 301 300 297 282 274 285 289 287 287 291 291 294 295 298 296 288 289 287 293 291 289 292 291 290 287 288 291 289 280
302 302 301 301 302 301 301 300 300 300 301 303 303 303 301 301 294 301 300 294 281 276 287 282 283 287 287 286 288 290 289 289 285 281 282 287 288 293 295 291 293 288 284 280 279 279 277
302 301 301 300 301 301 300 300 300 300 302 302 303 303 301 301 300 299 296 286 276 282 281 286 286 287 283 287 287 288 288 285 290 288 284 281 280 289 294 291 287 286 287 279 274 275 278
301 301 300 300 301 301 299 300 300 300 302 302 303 297 297 300 301 299 290 275 277 281 285 284 286 282 282 286 284 286 285 285 288 290 284 283 283 292 294 295 293 287 284 289 284 286 281
301 300 300 300 300 300 299 299 300 301 302 302 294 295 296 300 300 296 283 282 283 288 288 287 281 284 279 282 282 278 285 287 287 291 294 289 282 290 293 296 294 290 291 283 286 278 278
301 301 302 302 300 300 300 299 300 301 302 303 293 290 297 299 299 290 275 282 287 289 290 286 284 283 283 282 283 283 283 287 289 291 292 290 288 286 290 290 288 288 286 289 288 286 279
300 300 301 300 299 301 300 299 301 302 303 299 292 286 297 298 284 286 279 287 290 288 292 289 289 286 285 285 283 284 284 287 290 291 286 292 286 282 285 292 294 293 289 289 282 282 284
300 301 300 299 300 299 299 300 301 302 303 294 290 289 297 296 280 281 288 288 290 288 288 288 287 289 289 284 281 285 287 292 291 290 289 290 285 278 282 287 292 289 290 291 290 289 283
300 300 299 299 300 299 300 299 300 302 303 295 289 282 288 290 289 284 284 286 285 291 289 289 289 290 286 284 286 284 286 289 291 290 296 294 288 283 277 281 286 284 289 292 289 283 284
300 299 300 300 299 299 299 299 300 302 303 294 289 284 286 280 283 284 285 286 284 285 290 289 287 286 284 280 282 283 285 286 289 292 290 288 283 286 287 289 287 287 289 289 287 288 284
300 299 300 301 300 299 298 298 300 301 302 292 280 284 288 286 287 284 285 284 285 285 285 284 284 285 285 281 284 281 284 284 284 288 287 289 283 286 284 289 288 287 289 289 290 290 290
300 300 300 300 300 299 298 297 299 301 300 292 292 293 287 287 284 282 284 286 286 288 288 289 286 284 283 287 288 289 289 289 288 286 285 285 284 283 281 287 287 284 287 289 289 291 292
301 300 300 300 299 299 298 298 299 300 301 297 294 290 283 279 283 285 288 288 287 288 285 288 289 286 290 293 292 291 291 291 291 290 290 285 284 284 280 283 276 286 292 293 288 288 290
301 301 300 299 300 298 298 298 298 300 302 298 296 292 286 279 286 287 288 288 288 289 288 289 292 293 293 289 284 282 282 285 289 291 290 291 286 280 277 278 285 285 286 287 287 285 288
301 301 300 300 300 299 299 299 298 300 301 297 297 295 290 281 283 290 286 289 284 283 284 290 293 294 292 286 279 277 277 283 282 286 291 291 289 282 279 277 275 282 287 291 291 279 289
300 300 300 300 300 299 299 299 298 299 301 298 293 295 290 284 288 289 286 285 289 286 282 287 288 287 291 279 278 277 278 286 280 280 280 281 282 279 278 278 282 285 289 291 280 280 289
300 300 300 300 300 299 299 299 299 299 300 297 294 298 290 286 287 292 293 289 288 286 281 285 283 284 282 278 281 279 278 282 282 286 284 280 277 274 279 277 275 288 287 282 286 290 290
300 300 300 299 299 299 299 299 298 299 299 298 293 299 298 289 288 292 292 294 293 292 288 287 285 285 285 279 280 281 278 281 281 280 289 281 284 281 281 280 286 287 287 289 290 287 288

GFSGBSN_sfc_thetae_120.txt.gz
Theta_e
320 320 318 316 313 312 312 310 308 308 307 307 307 307 307 307 307 307 308 307 308 308 308 308 308 308 301 293 291 302 315 310 302 301 297 295 293 291 287 294 293 293 294 295 297 299 300
319 318 317 315 313 311 311 310 309 308 307 306 306 306 306 307 307 307 307 307 307 307 306 307 307 307 297 285 299 302 302 302 300 298 297 296 294 295 291 290 288 292 293 295 297 296 298
319 317 315 314 313 311 312 310 308 308 307 305 306 306 306 306 307 307 307 307 307 306 307 308 308 304 295 289 298 299 300 299 300 299 296 298 297 293 292 289 293 292 287 289 293 297 297
317 316 314 313 313 312 311 309 308 307 306 305 305 305 305 306 306 306 306 307 307 307 308 309 308 300 290 302 300 302 301 298 300 298 298 299 298 293 291 293 291 287 287 282 289 293 297
316 315 314 313 312 310 309 308 307 306 305 304 304 305 305 305 305 306 306 307 307 308 309 309 300 296 291 307 301 302 299 298 299 300 299 302 296 291 292 286 283 284 279 282 285 291 293
315 314 313 311 309 308 307 307 305 305 304 303 304 304 305 305 305 306 307 307 307 308 307 306 301 290 295 293 297 298 299 299 296 296 296 293 288 284 284 282 276 279 279 282 282 286 290
315 314 311 310 308 307 306 306 305 304 303 302 303 304 304 304 305 306 304 296 290 289 292 287 290 290 292 295 298 296 299 297 296 293 287 290 282 280 283 285 286 285 282 281 284 288 287
313 311 310 308 307 306 306 306 304 303 302 303 303 303 303 304 304 305 301 293 294 293 285 294 293 294 296 296 291 294 297 292 291 286 288 285 282 288 289 288 285 283 282 282 285 288 287
311 309 308 307 306 306 306 305 303 303 303 302 302 303 303 304 305 300 297 296 300 297 284 290 295 294 294 295 290 291 296 293 287 284 286 283 286 290 288 286 284 283 281 281 282 285 287
308 308 307 307 306 306 305 304 303 303 302 302 303 302 303 304 300 297 294 299 299 296 279 289 291 294 294 293 290 296 299 294 288 284 285 284 288 286 285 284 286 279 285 285 284 282 277
307 307 306 305 305 304 304 303 303 302 301 302 302 303 303 303 295 295 299 300 298 294 272 290 289 296 293 290 291 292 298 292 287 286 284 283 286 286 285 287 290 283 287 284 285 282 281
306 306 305 305 304 304 303 302 301 301 301 302 302 303 303 300 296 298 300 300 296 280 274 284 287 286 286 289 290 292 294 297 294 287 286 286 291 289 288 291 291 291 286 286 285 283 275
305 304 304 303 303 302 301 301 301 301 301 302 302 303 301 300 294 299 299 295 281 275 286 281 281 286 285 285 287 290 289 287 284 281 281 287 289 293 294 289 292 289 283 275 274 275 277
304 303 302 302 303 302 301 301 300 301 301 301 303 303 299 300 299 299 295 285 276 281 281 285 285 286 282 285 285 288 287 284 287 286 283 280 278 289 293 289 288 287 284 276 271 275 277
303 302 301 301 302 301 300 301 301 300 301 302 302 295 295 299 300 297 288 277 277 280 284 283 284 281 281 284 281 284 282 284 287 288 283 282 282 291 292 293 293 285 280 286 283 285 279
302 301 301 301 302 301 300 300 300 301 301 302 293 294 295 301 299 295 282 282 282 287 287 286 280 283 278 280 280 274 282 286 286 289 292 287 281 290 291 294 294 289 290 282 284 276 275
301 300 301 301 301 300 300 300 300 301 301 302 293 290 296 298 298 288 277 281 286 288 289 285 283 281 282 282 282 277 281 286 287 287 291 289 286 285 291 288 286 287 285 286 287 283 278
301 301 302 302 300 300 301 300 301 302 302 298 292 284 296 297 284 282 278 286 290 287 290 288 287 286 284 284 281 282 282 286 289 288 284 289 288 282 284 292 294 292 289 288 280 281 284
301 301 301 300 300 301 300 301 301 302 302 293 289 288 296 295 278 280 287 288 289 287 286 286 285 289 287 283 279 283 285 290 289 287 284 288 284 278 280 286 289 286 288 289 289 287 282
300 301 300 300 301 300 300 300 301 302 302 294 288 281 287 288 287 282 282 284 284 290 288 288 288 289 284 282 284 281 284 288 290 288 295 291 286 283 277 280 286 284 286 289 288 282 283
301 300 300 300 300 300 300 299 301 302 302 294 286 283 286 277 280 282 283 285 283 284 288 287 285 284 282 278 280 281 284 285 287 291 288 287 281 284 285 288 288 287 287 288 287 288 284
300 300 301 301 300 300 299 299 300 301 301 292 281 284 286 284 285 282 284 283 283 284 284 283 282 284 283 279 282 280 283 283 282 287 285 287 280 284 283 288 287 285 289 287 287 287 290
300 300 300 301 300 299 298 298 300 301 300 290 291 291 286 284 283 280 282 284 285 287 287 288 285 283 282 284 287 288 287 287 287 285 283 283 282 281 279 285 287 280 283 285 285 286 290
301 300 300 300 300 299 298 298 299 301 300 294 292 289 282 278 282 283 288 287 286 287 284 287 289 285 289 292 290 289 288 288 288 288 288 283 283 282 279 282 276 284 287 288 285 285 286
301 301 300 300 300 299 298 298 299 301 301 295 294 290 284 277 284 286 287 287 287 287 286 288 289 291 292 288 283 281 281 284 287 290 289 288 284 278 277 278 283 283 284 284 284 283 287
301 301 301 301 300 300 299 299 299 300 301 295 293 293 288 280 282 289 286 287 281 281 283 287 291 292 290 283 278 277 277 281 281 285 289 289 288 281 279 277 273 281 284 289 289 278 288
301 301 301 301 300 300 299 299 299 300 302 295 292 293 288 278 286 287 283 283 287 284 281 284 286 286 287 277 277 276 277 284 278 279 280 281 281 277 278 277 280 284 286 288 278 279 288
301 301 300 301 300 299 299 299 299 300 301 295 293 294 288 281 286 290 292 286 287 285 280 284 281 283 280 277 278 277 277 280 281 284 282 280 277 277 277 275 272 285 285 280 284 286 288
300 300 300 300 300 299 299 299 299 300 300 297 291 297 295 286 284 291 291 293 292 291 286 285 284 283 284 277 277 279 277 279 280 275 288 280 283 279 280 279 285 286 285 287 289 286 285

GFSGBSN_sfc_thetae_123.txt.gz
Theta_e
322 321 320 320 318 317 315 313 310 309 309 308 307 307 307 307 307 307 307 307 307 307 307 307 308 309 301 289 288 299 311 307 300 300 297 294 291 290 285 287 289 286 290 294 295 295 294
321 320 319 319 318 316 314 312 310 309 309 308 307 306 306 306 306 307 307 307 307 307 306 307 308 308 296 283 295 298 300 300 299 296 295 295 293 293 290 288 286 289 289 289 291 291 292
321 319 319 317 316 315 314 312 310 309 308 308 306 306 305 306 306 306 307 306 306 306 306 307 308 304 295 289 297 299 300 297 299 297 293 296 295 291 290 287 292 290 286 288 289 289 289
321 319 319 316 315 314 312 312 311 309 308 307 306 305 305 305 306 306 306 305 306 307 307 308 309 300 289 301 300 303 300 300 299 297 297 298 297 292 289 291 289 286 285 280 286 288 289
320 319 318 315 314 313 312 311 310 309 307 306 305 304 305 305 305 305 305 306 307 308 308 309 298 294 288 304 299 301 302 297 297 297 297 301 296 290 289 284 280 282 277 279 282 287 287
320 319 317 315 314 313 312 310 309 308 306 305 304 304 304 305 305 306 306 307 306 307 307 306 301 289 293 291 296 296 297 297 294 294 294 293 288 284 282 280 274 277 277 278 279 284 286
320 318 316 315 313 312 310 309 308 306 305 304 304 304 304 304 304 305 303 294 289 287 292 287 288 290 291 295 297 295 296 295 294 291 285 288 282 279 282 283 284 283 281 279 283 287 285
318 317 315 314 311 310 309 308 306 305 304 303 304 303 303 303 304 305 300 291 292 292 283 292 292 292 295 295 290 293 296 291 290 285 286 283 280 286 288 287 285 283 280 280 283 286 285
316 315 314 312 311 308 307 307 305 304 303 304 303 302 303 303 304 300 294 295 298 297 285 289 294 293 294 294 290 290 295 292 288 285 284 281 284 289 287 285 283 283 282 281 282 285 285
314 312 311 310 307 307 307 307 305 304 303 303 302 302 302 303 298 296 294 299 299 297 282 288 291 293 294 293 289 294 297 292 287 283 284 283 287 286 284 283 284 279 286 286 285 281 275
312 310 309 308 307 306 306 306 304 304 303 302 302 302 302 303 293 293 298 300 299 295 274 289 289 295 292 289 290 290 297 292 286 286 284 283 285 285 283 284 288 284 289 287 284 280 278
309 308 307 307 306 306 305 304 303 303 302 302 302 302 302 299 294 296 299 300 296 282 275 284 287 286 286 288 288 291 293 295 292 287 286 286 290 287 286 289 290 292 288 285 283 280 273
307 307 307 306 305 304 304 303 302 301 301 302 302 302 299 299 292 298 297 294 281 276 285 281 281 286 285 284 286 288 288 286 282 279 280 285 287 289 290 288 291 288 281 273 271 272 272
305 304 304 305 304 303 302 301 301 301 301 302 302 302 298 298 296 298 294 284 277 282 281 285 285 285 281 284 284 285 285 282 286 284 281 279 276 287 292 288 286 286 281 276 268 273 276
303 304 303 303 303 301 301 301 301 301 301 301 302 295 293 296 298 297 289 278 279 280 283 283 284 280 280 283 280 282 280 283 285 286 280 280 281 289 291 292 291 285 282 287 280 281 278
303 302 302 303 302 302 301 301 301 301 301 302 292 293 294 300 300 294 284 282 282 286 286 285 279 282 277 279 279 272 280 284 283 286 288 286 279 288 291 294 292 289 290 281 282 275 275
301 301 302 302 301 300 300 300 301 301 302 302 293 289 295 299 298 288 279 282 285 287 288 284 282 280 281 280 280 275 280 285 285 285 286 286 284 284 289 286 285 286 286 287 287 284 278
300 301 302 301 300 299 300 300 301 302 302 298 291 282 295 298 286 284 281 287 290 287 289 287 286 285 283 282 280 280 281 284 288 286 281 285 284 280 283 291 293 291 287 287 281 280 283
301 301 301 301 300 300 300 301 302 302 302 293 288 287 295 295 281 283 287 287 288 286 286 285 284 287 285 281 278 281 283 288 289 286 283 285 282 276 278 284 288 285 288 288 289 287 283
302 301 301 300 301 301 300 301 302 302 302 293 286 281 287 289 288 283 282 283 283 289 287 286 286 285 282 280 283 280 281 287 288 287 292 289 283 277 272 279 285 283 286 289 288 282 283
302 301 301 301 301 300 300 300 301 302 302 292 285 283 287 281 281 282 282 283 282 282 285 286 283 283 280 278 279 279 283 284 286 289 287 285 279 282 283 286 286 286 286 287 285 286 283
301 300 301 301 300 299 299 299 300 301 301 291 284 285 286 284 284 282 283 282 282 282 283 282 281 283 282 279 280 279 282 282 281 285 284 285 279 282 281 287 286 281 284 285 284 285 288
301 300 300 300 300 300 299 299 300 301 299 289 290 290 286 283 282 280 281 283 284 285 286 286 284 282 281 283 285 286 287 287 286 283 282 281 281 280 278 285 286 279 280 283 283 284 286
301 300 300 300 300 299 298 299 300 301 299 293 292 288 283 279 282 282 286 285 285 286 283 287 287 284 288 291 289 288 287 286 286 286 286 282 282 281 279 282 274 282 286 287 284 284 285
301 300 300 300 300 299 298 299 300 301 301 294 293 289 284 278 283 285 286 285 285 286 284 286 288 289 290 287 282 281 281 283 285 289 287 285 282 278 276 278 281 283 283 282 282 282 286
301 301 300 301 300 299 298 299 300 301 301 295 291 292 287 282 282 288 285 285 281 281 282 285 290 290 288 282 278 277 276 280 280 282 287 287 285 282 279 276 272 279 284 287 288 277 287
301 301 301 301 300 299 298 299 300 301 301 295 292 292 287 281 286 287 283 283 285 283 280 283 285 284 285 277 277 276 277 282 278 278 278 280 279 277 277 278 279 283 285 287 277 277 286
301 301 301 301 300 299 298 299 300 301 301 295 292 293 288 281 284 288 291 286 285 283 279 283 280 281 280 276 277 276 276 280 280 283 280 280 278 276 277 274 271 284 284 279 283 286 285
300 300 300 300 300 300 299 299 300 301 300 297 292 295 293 285 284 289 291 291 291 289 285 284 282 283 283 276 275 278 277 278 279 274 285 274 283 279 280 278 284 285 285 287 287 285 285

GFSGBSN_sfc_thetae_129.txt.gz
Theta_e
325 324 323 322 322 321 320 319 318 316 314 312 310 309 309 308 307 307 307 307 307 307 307 308 309 310 300 290 290 299 308 306 302 301 298 296 294 292 289 290 291 289 290 291 292 293 292
319 323 323 322 321 321 320 319 317 315 313 312 310 309 308 307 306 307 306 306 306 306 306 308 309 308 295 288 297 300 302 301 300 299 298 298 295 295 291 290 289 290 291 291 292 292 292
318 319 322 321 321 321 320 318 317 315 312 311 310 309 308 307 306 306 306 306 306 306 307 308 309 303 294 291 299 302 303 301 301 299 296 299 298 295 294 290 292 291 287 289 290 290 290
315 316 319 321 320 319 318 318 317 315 312 311 310 309 307 306 306 305 305 305 306 307 307 307 308 300 292 300 302 303 303 301 301 300 298 299 299 295 293 293 291 288 287 283 288 290 290
314 315 317 318 320 319 318 317 316 315 312 311 310 308 307 306 305 304 305 306 309 309 309 308 300 296 290 303 298 300 303 298 298 298 299 300 298 293 292 287 285 285 281 282 285 290 289
314 314 316 316 320 319 318 317 316 314 312 311 309 308 307 306 305 305 306 306 309 307 306 305 301 291 295 292 297 297 299 299 296 296 296 295 291 289 287 286 279 280 281 283 282 287 288
312 314 315 316 316 320 319 318 315 312 311 311 309 307 306 305 304 304 301 300 292 292 298 290 290 290 292 296 297 296 298 297 296 294 288 291 287 284 286 286 286 284 283 282 285 289 287
311 312 314 316 316 319 320 318 314 312 311 309 308 306 306 304 304 304 299 291 291 293 286 291 291 292 294 296 291 294 298 293 292 287 289 287 284 288 288 287 285 284 282 282 286 290 289
309 311 313 315 316 318 319 317 313 311 310 309 307 306 305 304 303 301 295 295 298 296 286 289 293 292 293 294 291 291 296 294 290 287 286 285 287 289 287 286 284 285 283 284 283 287 290
308 310 312 316 316 317 318 316 312 310 309 307 307 305 304 303 299 297 295 299 298 299 285 287 290 293 294 294 290 295 297 295 290 286 286 286 288 286 285 284 285 282 287 286 285 284 280
307 309 312 316 315 315 317 313 311 309 308 307 305 303 303 304 296 295 297 298 300 296 275 288 290 297 294 290 291 291 298 294 288 288 287 286 286 286 284 286 287 285 288 287 287 284 283
306 312 315 316 315 315 313 310 308 307 306 305 303 303 303 299 297 299 300 299 297 284 274 283 287 287 287 289 290 293 294 296 294 288 288 287 291 289 288 290 289 291 288 289 287 283 275
307 315 316 314 315 313 310 308 306 305 305 303 302 302 301 300 295 299 300 296 283 277 284 280 283 287 286 285 287 289 288 286 284 280 280 284 286 290 290 287 291 289 286 279 277 276 276
302 314 314 314 311 309 307 306 305 305 304 303 303 303 301 299 299 299 296 288 277 281 281 285 285 285 283 285 285 285 286 283 287 285 281 277 277 287 291 288 286 286 285 279 273 275 278
304 302 312 309 308 306 306 305 304 304 303 303 302 295 295 296 299 299 291 281 280 282 284 283 285 281 281 283 284 283 283 283 286 286 279 278 278 288 288 292 291 288 283 289 281 282 278
303 302 299 305 306 306 304 303 303 303 302 301 293 293 293 298 299 295 286 282 282 286 286 286 280 282 279 281 281 280 282 286 285 287 287 283 277 285 288 293 294 290 292 283 283 275 274
302 302 301 300 299 302 302 302 302 301 301 301 295 291 296 299 299 289 281 282 284 288 289 285 282 281 282 281 282 279 282 285 287 286 287 284 282 282 287 286 284 287 285 286 285 283 278
299 299 299 300 300 299 299 300 300 300 300 298 293 285 295 298 287 285 283 286 289 287 289 287 287 285 284 283 281 281 282 285 288 287 282 286 284 279 281 288 291 288 286 286 281 281 284
301 301 300 299 299 299 301 301 300 300 301 294 289 289 296 296 282 283 287 287 288 286 286 286 286 287 286 283 279 282 284 288 288 286 284 287 283 276 278 286 288 285 286 286 288 286 282
301 300 300 300 300 300 301 300 301 302 302 294 289 283 288 291 289 286 284 284 284 288 286 287 285 286 283 281 283 281 281 286 288 287 290 290 284 280 276 279 284 282 283 285 284 283 282
301 301 299 300 300 300 301 301 302 302 302 293 287 283 287 282 284 284 286 285 284 282 286 287 284 284 282 279 280 280 283 284 287 289 288 287 280 283 284 285 285 283 283 282 280 283 280
301 300 300 301 300 301 301 302 302 302 301 291 286 285 287 286 287 284 286 284 283 283 284 282 283 283 283 281 282 280 283 283 283 286 285 286 281 283 282 286 286 282 283 283 281 282 284
300 301 301 301 300 300 301 301 301 302 298 290 290 291 288 284 283 283 283 284 284 286 287 287 285 284 282 284 286 287 288 288 287 285 283 283 283 282 278 284 285 278 280 282 282 283 282
301 301 301 300 300 300 300 300 301 301 299 294 291 289 286 281 283 284 285 286 285 285 285 287 288 286 288 291 290 289 287 287 287 287 287 283 283 283 279 282 274 282 285 286 283 283 284
301 301 300 300 300 299 299 300 301 301 300 294 292 290 287 282 285 285 286 285 286 287 286 286 288 289 290 289 285 283 283 284 285 288 286 286 285 281 278 278 281 282 282 280 280 280 284
301 301 300 300 299 299 299 300 301 301 299 293 291 292 291 286 284 288 285 286 283 283 284 286 289 290 290 285 283 279 277 281 280 282 288 285 285 283 280 276 273 279 283 286 286 277 284
300 301 301 299 299 299 299 300 302 301 300 294 292 292 291 285 287 288 285 285 286 284 283 285 286 286 288 283 281 280 279 283 279 278 279 281 281 278 277 277 279 282 284 286 278 277 284
300 300 300 300 299 299 299 301 301 301 300 295 293 293 290 286 286 290 292 287 286 285 283 285 284 284 283 280 280 280 280 282 281 283 281 279 278 277 278 275 273 284 284 279 281 286 284
299 299 300 299 299 299 300 301 300 300 300 297 291 294 293 288 287 291 292 292 292 290 287 285 284 284 285 281 281 282 281 282 281 278 285 279 282 279 280 279 284 285 283 285 285 283 283

GFSGBSN_sfc_thetae_132.txt.gz
Theta_e
319 319 325 324 323 322 322 321 319 318 317 316 314 312 311 310 309 308 307 307 307 307 307 308 310 311 306 297 297 305 310 312 307 305 302 300 298 296 294 295 295 294 295 296 297 297 297
316 317 318 321 323 322 323 321 319 317 316 314 313 312 311 310 308 307 307 307 307 307 307 308 310 310 302 292 302 305 307 305 305 304 302 302 299 299 295 294 293 295 295 296 297 297 297
316 316 316 316 318 322 322 320 319 317 316 314 312 312 311 309 308 307 306 306 306 306 307 309 309 307 300 295 304 308 307 304 305 304 300 302 302 299 298 295 297 296 292 295 295 295 295
313 314 315 315 316 317 320 320 319 318 316 314 312 311 310 309 308 306 306 306 306 307 308 309 309 305 296 304 308 306 307 304 305 305 303 303 303 300 298 298 296 293 293 290 293 294 295
312 313 313 314 314 316 317 319 318 318 316 313 312 311 310 309 307 306 305 305 308 310 310 309 304 302 294 306 301 304 306 301 302 304 304 303 302 298 297 293 292 291 288 289 290 294 294
312 312 312 313 313 315 316 318 318 317 315 313 312 311 309 308 307 306 305 307 309 309 307 306 304 297 298 296 300 301 304 302 300 301 300 299 299 295 295 292 286 287 287 289 289 293 294
312 312 313 313 312 314 315 317 318 316 314 313 312 311 309 308 306 305 305 307 300 299 301 295 295 294 296 300 301 300 302 301 301 298 294 296 293 290 291 291 291 289 288 288 292 295 293
311 311 310 311 311 313 314 316 317 316 314 313 311 310 308 306 305 305 306 298 296 299 293 297 295 295 297 300 295 298 302 297 296 292 294 293 290 292 293 292 290 290 288 289 292 294 293
311 309 309 310 310 312 313 315 315 316 313 312 310 309 306 306 305 303 301 299 303 301 292 291 296 295 296 299 294 295 300 297 294 291 292 290 292 293 291 290 289 290 288 289 288 292 295
310 309 308 309 310 311 312 314 315 316 313 311 309 307 306 305 299 301 297 304 303 304 289 289 292 296 298 298 292 300 301 297 294 290 291 291 293 290 290 289 290 286 292 291 290 289 286
309 308 306 307 309 309 310 312 314 316 312 309 307 307 305 304 300 297 300 305 306 303 278 291 292 302 298 293 295 295 302 298 291 290 291 289 289 289 288 289 291 289 293 292 291 290 287
308 308 306 307 311 311 310 311 313 314 311 308 307 306 305 302 300 301 302 305 303 288 277 286 291 291 291 292 293 296 296 299 298 291 292 291 294 292 292 293 293 294 292 293 292 288 281
307 307 305 305 313 313 311 312 314 311 308 307 305 304 301 302 297 303 304 299 285 280 289 283 286 290 290 288 290 292 291 290 289 284 284 287 289 293 294 291 294 293 291 285 283 282 281
306 306 303 306 314 314 313 314 311 308 306 304 303 303 301 303 302 305 302 291 279 285 285 289 289 289 286 289 289 289 290 288 290 288 286 283 282 290 293 290 290 291 289 284 276 280 283
304 304 303 305 314 314 313 310 307 305 304 303 302 298 298 300 304 306 295 283 284 286 287 287 288 285 285 287 288 288 288 288 289 289 283 283 281 289 291 294 295 289 289 292 285 287 282
303 303 302 301 311 312 308 306 305 304 303 302 295 294 295 302 305 301 291 285 287 289 290 289 283 286 283 285 285 287 286 290 288 290 290 286 281 287 289 296 296 293 295 286 287 278 277
302 302 302 300 302 306 305 305 304 303 301 300 294 288 298 303 304 293 284 286 287 291 292 288 286 284 285 284 286 285 286 289 290 289 290 289 286 286 289 289 288 290 289 288 288 286 281
300 300 301 300 300 300 303 304 302 301 302 300 295 285 299 302 289 291 287 289 291 290 292 290 291 288 287 286 285 284 285 288 292 290 286 290 288 283 284 291 293 292 288 289 283 281 286
300 299 299 299 299 301 300 300 300 301 302 299 290 288 298 300 285 287 290 288 290 289 289 289 288 289 290 287 283 286 288 291 291 289 289 291 287 282 283 288 292 287 288 288 288 287 283
301 299 299 300 298 298 299 299 300 302 302 300 293 284 290 292 293 288 287 286 286 290 289 290 288 290 288 285 287 285 285 288 291 290 290 292 288 283 280 283 286 284 286 287 287 283 283
300 300 299 300 299 301 299 298 300 301 302 298 293 287 289 284 287 289 289 287 285 284 289 289 287 287 286 283 284 283 286 287 289 291 292 291 284 286 287 288 287 284 285 285 283 285 283
300 299 299 298 300 301 300 300 301 302 301 296 288 289 291 289 291 289 289 287 286 285 287 286 286 287 288 284 284 283 286 288 287 290 289 290 286 287 285 288 287 283 286 286 284 283 284
300 300 300 300 300 301 301 301 302 302 300 296 295 294 293 290 290 288 288 288 287 288 289 290 289 287 286 287 290 292 292 291 291 289 289 288 287 285 281 287 285 281 282 284 284 284 283
301 300 300 300 301 300 301 301 301 302 300 298 297 295 293 286 289 288 289 289 288 290 288 290 291 288 291 295 295 293 292 291 291 291 292 288 286 286 283 285 277 282 286 287 283 283 285
300 300 301 300 300 300 300 300 301 301 300 301 299 297 294 288 290 288 289 289 291 292 290 290 291 293 296 293 289 286 287 289 289 292 291 292 288 284 282 283 282 283 284 282 282 280 285
301 301 300 300 300 299 300 301 301 300 299 299 298 298 299 291 289 292 290 290 288 288 288 289 293 295 294 291 288 282 281 285 284 286 291 290 290 286 284 279 276 283 286 287 287 280 285
301 301 300 299 299 299 300 301 301 300 299 300 298 299 299 292 293 294 290 289 292 290 288 290 290 290 293 290 286 284 283 287 283 282 282 284 285 282 283 281 281 285 287 288 279 279 285
301 301 300 300 299 299 301 301 301 300 300 300 298 300 300 294 293 295 294 292 291 292 287 290 288 289 290 286 286 286 286 287 285 286 284 283 283 283 282 280 277 288 287 283 283 286 286
300 300 300 300 299 300 301 301 301 301 299 299 297 300 301 297 293 297 296 297 296 295 292 291 289 289 291 289 290 290 286 287 286 281 289 282 286 285 284 282 286 289 286 287 286 284 284

GFSGBSN_sfc_thetae_135.txt.gz
Theta_e
316 317 318 319 324 323 323 322 321 319 318 318 317 316 313 312 311 310 308 308 308 308 308 308 311 311 310 301 300 308 311 312 309 307 304 302 301 300 298 299 300 298 299 300 301 300 300
317 317 316 316 316 318 323 322 321 319 318 317 316 314 313 312 311 310 308 308 307 307 307 309 311 311 307 295 305 308 308 307 307 306 304 304 301 302 299 298 297 300 299 299 300 300 301
315 316 316 315 315 316 317 321 321 319 318 317 316 314 313 312 311 309 308 307 307 307 307 309 311 310 303 299 307 310 308 307 307 306 303 305 305 302 302 299 302 299 295 299 300 299 298
314 314 313 314 315 315 316 317 320 320 318 317 316 313 312 312 311 309 308 307 307 307 308 309 310 308 300 306 310 307 309 307 307 307 305 306 306 303 300 302 299 296 298 293 298 297 299
314 313 313 313 313 313 314 315 316 319 319 317 315 313 311 310 310 309 307 305 307 310 311 310 308 305 298 305 303 306 308 303 304 306 307 305 304 301 301 296 295 297 291 293 295 299 297
312 314 314 314 314 313 313 313 315 316 318 317 315 313 311 310 309 308 306 307 309 309 309 309 306 299 300 298 303 304 307 304 302 303 302 302 301 297 298 296 289 291 291 293 292 297 297
310 310 313 313 313 312 312 313 313 314 316 316 314 313 311 309 307 307 304 307 300 299 304 299 299 297 299 303 304 302 305 303 303 301 296 301 294 293 296 296 294 292 291 290 294 298 295
310 310 310 312 311 310 310 312 312 313 315 316 314 312 310 308 307 307 305 302 298 302 297 301 299 299 301 303 297 300 304 298 298 294 297 295 293 297 296 294 293 292 291 291 295 296 295
310 310 310 312 311 310 309 311 311 312 313 316 313 311 309 308 307 303 303 301 303 304 293 296 298 298 299 301 297 298 301 299 296 294 295 293 295 296 293 293 292 293 291 291 290 294 296
308 308 308 310 311 311 309 310 311 311 312 314 313 310 308 306 298 299 297 305 304 306 289 292 292 297 299 300 295 302 302 299 296 293 294 294 296 292 292 292 293 289 294 293 292 291 287
307 308 309 310 310 309 308 308 309 311 312 314 312 309 305 303 300 296 299 305 305 302 279 295 293 303 300 295 297 297 303 299 294 294 293 293 292 291 290 292 293 290 295 294 294 292 292
307 307 308 309 308 308 307 307 308 310 311 314 311 307 304 302 302 301 304 304 302 285 278 290 295 293 293 295 295 298 298 301 300 294 295 294 296 294 294 295 296 297 295 295 296 293 286
305 306 307 307 307 307 308 309 310 310 310 312 308 306 304 304 299 305 303 299 282 279 296 288 289 292 292 291 292 294 293 293 291 287 288 291 292 296 296 293 297 296 293 286 284 285 284
303 306 305 306 306 307 309 311 311 311 311 310 306 303 303 306 304 306 300 289 277 287 291 292 292 292 289 292 292 292 291 290 292 291 289 286 285 292 296 293 292 293 292 286 278 281 284
302 304 304 305 305 307 311 313 313 309 311 307 304 299 300 303 305 303 291 281 284 289 292 290 291 288 288 291 291 291 291 290 292 291 286 285 285 293 292 295 297 293 290 294 287 289 285
302 303 303 303 304 308 313 311 310 310 306 303 297 296 296 303 305 297 288 284 288 292 293 292 287 290 286 288 288 289 289 293 291 292 292 289 284 290 292 296 298 295 296 288 290 280 279
301 302 302 303 302 308 312 310 308 305 303 302 295 289 297 304 302 291 286 289 292 293 295 292 290 288 289 288 288 287 288 291 293 291 293 292 289 288 291 290 290 292 291 290 290 288 282
299 300 301 302 301 304 306 305 304 304 303 302 294 284 299 301 288 288 289 293 293 292 296 293 293 292 290 290 288 287 288 291 294 292 289 293 291 286 287 293 295 293 290 288 283 284 287
299 299 299 301 300 299 301 303 303 303 304 297 287 289 299 299 286 288 292 291 292 292 292 292 291 293 294 290 286 288 290 294 294 291 291 293 289 284 285 290 293 290 290 290 289 288 285
300 299 298 298 300 300 301 300 299 301 303 301 291 284 290 293 294 289 288 289 288 293 291 292 292 294 292 289 291 288 289 291 292 292 292 293 290 286 283 284 289 286 288 289 287 283 285
300 300 299 298 297 299 300 300 301 301 303 300 294 288 291 284 290 291 291 289 288 287 292 293 290 291 290 286 287 287 289 289 291 292 292 293 287 288 288 289 289 287 287 286 284 285 283
300 300 299 300 298 299 299 300 299 300 302 299 289 290 294 291 292 290 290 288 287 288 289 287 287 289 290 287 287 285 288 289 289 292 293 294 288 288 286 289 289 285 287 287 286 286 284
300 300 299 300 300 299 299 298 300 302 301 299 298 298 294 290 289 288 288 288 288 290 290 292 291 290 288 289 292 294 295 295 294 292 291 292 289 287 284 289 286 282 284 285 284 286 286
300 300 300 299 299 300 299 300 300 302 300 301 299 298 292 286 288 288 289 291 289 291 289 291 293 290 293 298 297 295 294 293 293 293 296 291 288 289 285 287 277 283 290 288 285 284 286
300 300 300 301 301 300 301 300 300 301 301 303 302 299 294 289 290 291 291 292 292 293 292 292 293 296 298 295 289 286 286 288 290 294 294 294 290 287 283 284 283 284 287 286 285 282 286
301 300 301 301 300 300 301 302 301 300 300 302 303 304 301 293 291 293 291 292 290 290 291 292 296 299 297 292 290 283 281 286 284 287 294 293 293 288 286 280 278 285 288 291 289 281 286
301 301 301 300 300 299 300 301 301 301 300 301 303 306 303 297 297 296 292 292 295 293 289 291 292 293 296 290 287 286 285 290 284 283 284 286 286 284 285 282 284 288 290 292 279 280 286
300 300 300 300 299 300 301 301 301 300 300 301 302 306 304 299 297 299 299 295 295 294 289 292 290 291 290 288 288 288 288 289 288 289 287 286 285 284 286 282 279 290 290 284 286 288 287
300 300 300 300 300 300 301 301 300 300 300 299 300 305 307 300 296 302 300 301 300 299 296 295 292 291 293 292 292 291 288 290 289 284 291 285 289 288 287 284 290 291 289 290 289 287 286